XE2VP-WX Weather Reports


Display with metric or nautical units.
time (UTC)temp
F
wind
direction
speed
MPH
gust
MPH
rain 1hr
in
rain 24hr
in
rain mn
in
humidity
%
barometer
mb
20260506175832 92 50 4.0 7.0 0.00 0.00 0.00 36 940.8
20260506175733 92 30 4.0 7.0 0.00 0.00 0.00 36 940.8
20260506175632 92 74 4.0 7.0 0.00 0.00 0.00 37 940.8
20260506175533 92 75 4.0 7.0 0.00 0.00 0.00 37 940.8
20260506175432 92 15 4.0 7.0 0.00 0.00 0.00 37 940.8
20260506175330 92 50 4.0 7.0 0.00 0.00 0.00 36 940.8
20260506175231 92 41 4.0 7.0 0.00 0.00 0.00 36 940.8
20260506175126 91 32 3.0 7.0 0.00 0.00 0.00 39 940.8
20260506175027 91 52 3.0 7.0 0.00 0.00 0.00 40 940.8
20260506174926 91 112 3.0 7.0 0.00 0.00 0.00 40 940.8
20260506174826 91 65 3.0 7.0 0.00 0.00 0.00 41 940.9
20260506174725 92 45 3.0 7.0 0.00 0.00 0.00 41 940.9
20260506174624 92 92 3.0 7.0 0.00 0.00 0.00 41 941.0
20260506174525 92 71 3.0 7.0 0.00 0.00 0.00 42 941.0
20260506174425 91 102 3.0 7.0 0.00 0.00 0.00 43 941.0
20260506174320 92 46 3.0 7.0 0.00 0.00 0.00 43 941.0
20260506174219 92 65 3.0 7.0 0.00 0.00 0.00 42 941.0
20260506174119 92 44 2.0 7.0 0.00 0.00 0.00 40 941.0
20260506174019 91 79 2.0 5.0 0.00 0.00 0.00 40 941.0
20260506173918 91 95 3.0 5.0 0.00 0.00 0.00 39 941.0
20260506173819 91 359 3.0 5.0 0.00 0.00 0.00 39 941.0
20260506173714 91 338 3.0 5.0 0.00 0.00 0.00 39 941.0
20260506173615 91 20 3.0 5.0 0.00 0.00 0.00 41 941.0
20260506173515 91 286 3.0 6.0 0.00 0.00 0.00 42 941.1
20260506173414 90 9 3.0 6.0 0.00 0.00 0.00 42 941.1
20260506173315 90 33 4.0 6.0 0.00 0.00 0.00 43 941.1
20260506173214 90 359 4.0 6.0 0.00 0.00 0.00 42 941.1
20260506173115 90 44 4.0 6.0 0.00 0.00 0.00 43 941.1
20260506173014 90 30 3.0 6.0 0.00 0.00 0.00 44 941.1
20260506172914 90 0 3.0 6.0 0.00 0.00 0.00 44 941.2
20260506172815 90 30 3.0 6.0 0.00 0.00 0.00 44 941.2
20260506172715 90 64 3.0 6.0 0.00 0.00 0.00 45 941.2
20260506172615 90 63 3.0 6.0 0.00 0.00 0.00 45 941.2
20260506172515 90 56 3.0 6.0 0.00 0.00 0.00 45 941.2
20260506172415 90 73 3.0 6.0 0.00 0.00 0.00 45 941.2
20260506172315 90 66 3.0 6.0 0.00 0.00 0.00 45 941.2
20260506172215 90 22 3.0 6.0 0.00 0.00 0.00 45 941.2
20260506172116 90 37 3.0 6.0 0.00 0.00 0.00 45 941.2
20260506172015 90 38 3.0 6.0 0.00 0.00 0.00 46 941.2
20260506171915 90 349 3.0 6.0 0.00 0.00 0.00 45 941.2
20260506171815 90 0 3.0 7.0 0.00 0.00 0.00 43 941.2
20260506171715 90 340 3.0 7.0 0.00 0.00 0.00 45 941.2
20260506171615 90 45 4.0 7.0 0.00 0.00 0.00 46 941.2
20260506171515 90 15 4.0 8.0 0.00 0.00 0.00 46 941.2
20260506171416 90 5 4.0 8.0 0.00 0.00 0.00 46 941.3
20260506171315 90 0 3.0 8.0 0.00 0.00 0.00 45 941.3
20260506171215 90 35 4.0 8.0 0.00 0.00 0.00 44 941.2
20260506171115 90 31 4.0 8.0 0.00 0.00 0.00 44 941.2
20260506171015 90 8 4.0 8.0 0.00 0.00 0.00 45 941.3
20260506170916 90 357 4.0 8.0 0.00 0.00 0.00 44 941.3
20260506170815 90 354 3.0 8.0 0.00 0.00 0.00 44 941.2
20260506170715 90 17 3.0 8.0 0.00 0.00 0.00 45 941.3
20260506170615 90 351 3.0 8.0 0.00 0.00 0.00 45 941.2
20260506170515 90 354 2.0 7.0 0.00 0.00 0.00 46 941.3
20260506170415 90 327 3.0 7.0 0.00 0.00 0.00 46 941.3
20260506170315 90 342 3.0 7.0 0.00 0.00 0.00 46 941.3
20260506170215 90 9 3.0 7.0 0.00 0.00 0.00 47 941.3
20260506170116 90 308 3.0 7.0 0.00 0.00 0.00 46 941.4
20260506170015 89 31 3.0 7.0 0.00 0.00 0.00 46 941.4
20260506165915 89 0 3.0 6.0 0.00 0.00 0.00 46 941.3
20260506165816 89 310 3.0 6.0 0.00 0.00 0.00 48 941.4
20260506165714 89 334 3.0 6.0 0.00 0.00 0.00 48 941.4
20260506165615 89 294 3.0 6.0 0.00 0.00 0.00 48 941.4
20260506165515 89 355 3.0 6.0 0.00 0.00 0.00 48 941.4
20260506165415 89 8 3.0 6.0 0.00 0.00 0.00 48 941.4
20260506165315 89 326 3.0 6.0 0.00 0.00 0.00 48 941.4
20260506165216 89 354 3.0 6.0 0.00 0.00 0.00 48 941.4
20260506165115 89 351 3.0 6.0 0.00 0.00 0.00 49 941.3
20260506165015 89 15 2.0 6.0 0.00 0.00 0.00 49 941.4
20260506164915 89 16 2.0 6.0 0.00 0.00 0.00 50 941.3
20260506164816 89 5 2.0 6.0 0.00 0.00 0.00 50 941.3
20260506164714 89 23 2.0 6.0 0.00 0.00 0.00 50 941.4
20260506164613 89 328 2.0 6.0 0.00 0.00 0.00 52 941.4
20260506164514 89 26 2.0 6.0 0.00 0.00 0.00 52 941.4
20260506164414 89 11 2.0 6.0 0.00 0.00 0.00 52 941.4
20260506164314 88 356 2.0 6.0 0.00 0.00 0.00 52 941.4
20260506164214 88 24 3.0 6.0 0.00 0.00 0.00 53 941.5
20260506164114 88 149 3.0 6.0 0.00 0.00 0.00 53 941.5
20260506164014 88 105 3.0 6.0 0.00 0.00 0.00 53 941.5
20260506163914 88 43 3.0 6.0 0.00 0.00 0.00 53 941.5
20260506163810 88 62 3.0 6.0 0.00 0.00 0.00 52 941.4
20260506163709 88 27 3.0 5.0 0.00 0.00 0.00 53 941.4
20260506163610 88 335 2.0 5.0 0.00 0.00 0.00 53 941.4
20260506163510 88 11 2.0 5.0 0.00 0.00 0.00 52 941.4
20260506163409 88 5 2.0 5.0 0.00 0.00 0.00 52 941.4
20260506163309 88 25 2.0 5.0 0.00 0.00 0.00 52 941.4
20260506163210 88 355 2.0 5.0 0.00 0.00 0.00 52 941.4
20260506163109 87 3 2.0 5.0 0.00 0.00 0.00 53 941.4
20260506163010 87 268 2.0 5.0 0.00 0.00 0.00 53 941.5
20260506162910 87 209 2.0 7.0 0.00 0.00 0.00 53 941.5
20260506162810 87 48 2.0 7.0 0.00 0.00 0.00 54 941.5
20260506162710 87 25 2.0 7.0 0.00 0.00 0.00 54 941.5
20260506162609 87 16 3.0 7.0 0.00 0.00 0.00 54 941.5
20260506162510 86 0 3.0 7.0 0.00 0.00 0.00 55 941.5
20260506162410 86 230 3.0 7.0 0.00 0.00 0.00 55 941.5
20260506162310 86 41 3.0 7.0 0.00 0.00 0.00 55 941.5
20260506162209 86 357 3.0 7.0 0.00 0.00 0.00 55 941.6
20260506162110 87 8 3.0 7.0 0.00 0.00 0.00 55 941.5
20260506162010 87 332 3.0 7.0 0.00 0.00 0.00 55 941.6
20260506161909 87 8 2.0 7.0 0.00 0.00 0.00 55 941.5
20260506161810 87 22 2.0 6.0 0.00 0.00 0.00 55 941.5
20260506161710 87 35 2.0 6.0 0.00 0.00 0.00 55 941.6
20260506161610 87 7 2.0 6.0 0.00 0.00 0.00 56 941.6
20260506161510 87 333 2.0 5.0 0.00 0.00 0.00 56 941.6
20260506161410 87 347 3.0 5.0 0.00 0.00 0.00 56 941.6
20260506161310 86 353 2.0 5.0 0.00 0.00 0.00 57 941.5
20260506161210 86 15 2.0 5.0 0.00 0.00 0.00 58 941.5
20260506161110 86 14 2.0 5.0 0.00 0.00 0.00 58 941.5
20260506161010 87 28 2.0 5.0 0.00 0.00 0.00 58 941.5
20260506160910 87 25 2.0 5.0 0.00 0.00 0.00 58 941.5
20260506160810 87 26 2.0 5.0 0.00 0.00 0.00 58 941.5
20260506160711 87 50 2.0 5.0 0.00 0.00 0.00 57 941.5
20260506160610 87 56 2.0 5.0 0.00 0.00 0.00 57 941.5
20260506160510 87 19 1.0 5.0 0.00 0.00 0.00 56 941.6
20260506160411 86 31 1.0 6.0 0.00 0.00 0.00 56 941.6
20260506160310 86 123 2.0 6.0 0.00 0.00 0.00 57 941.6
20260506160210 86 331 2.0 6.0 0.00 0.00 0.00 57 941.6
20260506160110 86 0 2.0 6.0 0.00 0.00 0.00 58 941.6
20260506160010 85 0 2.0 6.0 0.00 0.00 0.00 58 941.6
20260506155909 85 56 2.0 6.0 0.00 0.00 0.00 58 941.6
20260506155809 85 89 2.0 6.0 0.00 0.00 0.00 59 941.6
20260506155708 85 284 2.0 6.0 0.00 0.00 0.00 58 941.6
20260506155609 85 28 2.0 6.0 0.00 0.00 0.00 59 941.6
20260506155504 85 307 2.0 6.0 0.00 0.00 0.00 59 941.6
20260506155405 85 4 2.0 4.0 0.00 0.00 0.00 59 941.6
20260506155306 85 345 2.0 4.0 0.00 0.00 0.00 58 941.6
20260506155205 85 357 2.0 4.0 0.00 0.00 0.00 59 941.6
20260506155104 85 9 2.0 4.0 0.00 0.00 0.00 58 941.6
20260506155003 84 18 2.0 4.0 0.00 0.00 0.00 59 941.6
20260506154903 84 16 2.0 4.0 0.00 0.00 0.00 59 941.6
20260506154759 84 352 2.0 4.0 0.00 0.00 0.00 60 941.6
20260506154658 84 2 2.0 4.0 0.00 0.00 0.00 61 941.6
20260506154559 84 0 2.0 4.0 0.00 0.00 0.00 61 941.6
20260506154459 84 0 2.0 4.0 0.00 0.00 0.00 62 941.6
20260506154357 84 111 2.0 4.0 0.00 0.00 0.00 62 941.6
20260506154257 84 144 2.0 4.0 0.00 0.00 0.00 62 941.6
20260506154157 84 179 2.0 4.0 0.00 0.00 0.00 61 941.5
20260506154058 84 153 1.0 4.0 0.00 0.00 0.00 62 941.5
20260506153957 84 191 1.0 4.0 0.00 0.00 0.00 62 941.5
20260506153856 84 131 1.0 4.0 0.00 0.00 0.00 62 941.5
20260506153753 84 130 1.0 4.0 0.00 0.00 0.00 62 941.5
20260506153653 84 187 1.0 4.0 0.00 0.00 0.00 62 941.5
20260506153551 84 215 1.0 4.0 0.00 0.00 0.00 62 941.5
20260506153451 84 134 1.0 4.0 0.00 0.00 0.00 62 941.5
20260506153352 84 147 1.0 4.0 0.00 0.00 0.00 61 941.4
20260506153251 84 0 1.0 4.0 0.00 0.00 0.00 62 941.4
20260506153147 84 71 1.0 4.0 0.00 0.00 0.00 62 941.4
20260506153047 84 141 1.0 4.0 0.00 0.00 0.00 61 941.4
20260506152947 84 115 1.0 3.0 0.00 0.00 0.00 62 941.4
20260506152847 84 0 1.0 3.0 0.00 0.00 0.00 61 941.4
20260506152747 83 35 1.0 3.0 0.00 0.00 0.00 62 941.3
20260506152647 83 42 1.0 3.0 0.00 0.00 0.00 62 941.4
20260506152546 83 4 1.0 3.0 0.00 0.00 0.00 62 941.4
20260506152447 83 5 1.0 3.0 0.00 0.00 0.00 62 941.3
20260506152347 83 352 1.0 3.0 0.00 0.00 0.00 62 941.3
20260506152247 83 301 1.0 4.0 0.00 0.00 0.00 63 941.3
20260506152147 82 0 1.0 4.0 0.00 0.00 0.00 63 941.3
20260506152047 82 317 2.0 4.0 0.00 0.00 0.00 64 941.3
20260506151947 82 355 2.0 4.0 0.00 0.00 0.00 64 941.4
20260506151847 82 37 2.0 4.0 0.00 0.00 0.00 64 941.4
20260506151747 82 42 2.0 4.0 0.00 0.00 0.00 65 941.4
20260506151647 82 16 2.0 4.0 0.00 0.00 0.00 65 941.4
20260506151547 81 33 2.0 4.0 0.00 0.00 0.00 65 941.4
20260506151447 81 106 2.0 4.0 0.00 0.00 0.00 66 941.3
20260506151347 81 22 2.0 5.0 0.00 0.00 0.00 67 941.3
20260506151247 81 72 2.0 5.0 0.00 0.00 0.00 67 941.3
20260506151148 81 20 3.0 5.0 0.00 0.00 0.00 68 941.3
20260506151047 81 21 3.0 5.0 0.00 0.00 0.00 69 941.3
20260506150948 81 53 3.0 5.0 0.00 0.00 0.00 69 941.3
20260506150847 81 30 3.0 5.0 0.00 0.00 0.00 69 941.4
20260506150748 81 52 3.0 5.0 0.00 0.00 0.00 69 941.4
20260506150647 81 84 3.0 5.0 0.00 0.00 0.00 69 941.4
20260506150547 81 71 3.0 5.0 0.00 0.00 0.00 69 941.4
20260506150448 81 37 3.0 5.0 0.00 0.00 0.00 69 941.4
20260506150347 81 51 3.0 5.0 0.00 0.00 0.00 70 941.4
20260506150245 81 51 3.0 5.0 0.00 0.00 0.00 69 941.4
20260506150146 81 78 3.0 5.0 0.00 0.00 0.00 69 941.4
20260506150045 81 57 2.0 5.0 0.00 0.00 0.00 69 941.4
20260506145946 81 80 2.0 5.0 0.00 0.00 0.00 69 941.4
20260506145846 81 18 2.0 5.0 0.00 0.00 0.00 70 941.3
20260506145745 81 15 3.0 6.0 0.00 0.00 0.00 70 941.4
20260506145641 81 52 2.0 6.0 0.00 0.00 0.00 69 941.4
20260506145542 81 75 2.0 6.0 0.00 0.00 0.00 69 941.4
20260506145442 81 348 2.0 6.0 0.00 0.00 0.00 69 941.4
20260506145341 81 4 2.0 7.0 0.00 0.00 0.00 69 941.4
20260506145242 81 85 3.0 7.0 0.00 0.00 0.00 69 941.4
20260506145142 80 77 3.0 7.0 0.00 0.00 0.00 70 941.4
20260506145041 80 140 3.0 7.0 0.00 0.00 0.00 70 941.3
20260506144941 80 32 3.0 7.0 0.00 0.00 0.00 70 941.4
20260506144841 80 102 2.0 7.0 0.00 0.00 0.00 70 941.3
20260506144742 80 144 2.0 7.0 0.00 0.00 0.00 71 941.4
20260506144641 80 22 3.0 7.0 0.00 0.00 0.00 72 941.4
20260506144543 80 24 3.0 7.0 0.00 0.00 0.00 73 941.4
20260506144443 80 19 3.0 7.0 0.00 0.00 0.00 73 941.4
20260506144343 80 64 3.0 7.0 0.00 0.00 0.00 72 941.4
20260506144243 80 68 3.0 7.0 0.00 0.00 0.00 73 941.4
20260506144143 80 104 4.0 7.0 0.00 0.00 0.00 73 941.4
20260506144043 80 67 4.0 7.0 0.00 0.00 0.00 73 941.4
20260506143943 79 56 4.0 7.0 0.00 0.00 0.00 74 941.5
20260506143843 79 61 4.0 7.0 0.00 0.00 0.00 75 941.5
20260506143744 79 102 4.0 7.0 0.00 0.00 0.00 75 941.5
20260506143643 80 88 4.0 7.0 0.00 0.00 0.00 75 941.5
20260506143543 80 67 4.0 7.0 0.00 0.00 0.00 75 941.5
20260506143444 80 65 4.0 7.0 0.00 0.00 0.00 74 941.5
20260506143343 80 87 4.0 8.0 0.00 0.00 0.00 74 941.4
20260506143243 80 50 4.0 8.0 0.00 0.00 0.00 74 941.5
20260506143144 80 59 4.0 8.0 0.00 0.00 0.00 74 941.5
20260506143043 80 74 4.0 8.0 0.00 0.00 0.00 74 941.5
20260506142944 80 68 4.0 8.0 0.00 0.00 0.00 74 941.5
20260506142843 80 98 4.0 8.0 0.00 0.00 0.00 74 941.5
20260506142743 79 120 3.0 8.0 0.00 0.00 0.00 75 941.5
20260506142644 79 71 3.0 8.0 0.00 0.00 0.00 76 941.5
20260506142543 80 37 3.0 8.0 0.00 0.00 0.00 76 941.5
20260506142443 80 64 3.0 8.0 0.00 0.00 0.00 75 941.5
20260506142344 80 67 3.0 7.0 0.00 0.00 0.00 75 941.5
20260506142243 80 84 2.0 6.0 0.00 0.00 0.00 73 941.5
20260506142144 80 89 2.0 6.0 0.00 0.00 0.00 74 941.5
20260506142043 80 109 2.0 6.0 0.00 0.00 0.00 74 941.5
20260506141942 80 54 3.0 6.0 0.00 0.00 0.00 73 941.5
20260506141844 79 116 3.0 6.0 0.00 0.00 0.00 73 941.5
20260506141743 79 120 3.0 6.0 0.00 0.00 0.00 73 941.4
20260506141644 79 20 3.0 6.0 0.00 0.00 0.00 74 941.4
20260506141542 79 78 3.0 6.0 0.00 0.00 0.00 75 941.4
20260506141442 79 83 3.0 6.0 0.00 0.00 0.00 76 941.4
20260506141342 78 148 4.0 6.0 0.00 0.00 0.00 77 941.4
20260506141242 78 6 4.0 7.0 0.00 0.00 0.00 77 941.4
20260506141143 78 52 4.0 7.0 0.00 0.00 0.00 77 941.4
20260506141042 78 64 4.0 7.0 0.00 0.00 0.00 77 941.4
20260506140942 78 65 4.0 7.0 0.00 0.00 0.00 77 941.4
20260506140842 78 56 4.0 7.0 0.00 0.00 0.00 77 941.3
20260506140742 78 88 4.0 7.0 0.00 0.00 0.00 78 941.3
20260506140640 78 30 4.0 7.0 0.00 0.00 0.00 78 941.3
20260506140541 78 54 4.0 7.0 0.00 0.00 0.00 78 941.3
20260506140440 78 87 4.0 7.0 0.00 0.00 0.00 78 941.3
20260506140341 78 32 4.0 7.0 0.00 0.00 0.00 78 941.3
20260506140241 78 62 4.0 6.0 0.00 0.00 0.00 78 941.3
20260506140140 78 81 4.0 6.0 0.00 0.00 0.00 77 941.2
20260506140041 78 86 4.0 6.0 0.00 0.00 0.00 78 941.2
20260506135940 78 61 3.0 6.0 0.00 0.00 0.00 79 941.2
20260506135841 79 85 3.0 6.0 0.00 0.00 0.00 78 941.2
20260506135740 79 71 3.0 6.0 0.00 0.00 0.00 78 941.2
20260506135641 79 95 3.0 6.0 0.00 0.00 0.00 77 941.2
20260506135541 79 82 2.0 6.0 0.00 0.00 0.00 76 941.2
20260506135441 79 93 2.0 6.0 0.00 0.00 0.00 75 941.2
20260506135341 79 72 2.0 6.0 0.00 0.00 0.00 75 941.2
20260506135241 79 76 2.0 5.0 0.00 0.00 0.00 75 941.2
20260506135141 79 41 2.0 5.0 0.00 0.00 0.00 76 941.2
20260506135041 79 102 2.0 5.0 0.00 0.00 0.00 75 941.2
20260506134937 79 55 2.0 5.0 0.00 0.00 0.00 77 941.2
20260506134836 78 0 2.0 5.0 0.00 0.00 0.00 77 941.2
20260506134737 78 0 3.0 5.0 0.00 0.00 0.00 77 941.2
20260506134635 78 92 3.0 6.0 0.00 0.00 0.00 76 941.1
20260506134535 78 104 3.0 6.0 0.00 0.00 0.00 76 941.2
20260506134435 78 80 3.0 6.0 0.00 0.00 0.00 77 941.2
20260506134334 78 86 3.0 6.0 0.00 0.00 0.00 77 941.1
20260506134232 78 110 4.0 7.0 0.00 0.00 0.00 78 941.1
20260506134130 78 0 4.0 8.0 0.00 0.00 0.00 78 941.1
20260506134030 78 63 4.0 8.0 0.00 0.00 0.00 78 941.2
20260506133929 78 89 4.0 8.0 0.00 0.00 0.00 78 941.2
20260506133830 78 62 4.0 8.0 0.00 0.00 0.00 78 941.2
20260506133729 78 77 4.0 8.0 0.00 0.00 0.00 78 941.1
20260506133630 78 96 4.0 8.0 0.00 0.00 0.00 79 941.1
20260506133528 78 73 3.0 8.0 0.00 0.00 0.00 78 941.1
20260506133429 78 63 3.0 8.0 0.00 0.00 0.00 78 941.1
20260506133328 78 83 3.0 8.0 0.00 0.00 0.00 77 941.1
20260506133229 79 54 3.0 8.0 0.00 0.00 0.00 76 941.1
20260506133128 79 67 3.0 6.0 0.00 0.00 0.00 76 941.1
20260506133028 79 46 3.0 6.0 0.00 0.00 0.00 75 941.0
20260506132928 79 92 3.0 6.0 0.00 0.00 0.00 75 941.0
20260506132828 79 56 3.0 6.0 0.00 0.00 0.00 75 941.0
20260506132728 79 105 2.0 6.0 0.00 0.00 0.00 75 941.0
20260506132628 79 351 2.0 6.0 0.00 0.00 0.00 75 940.9
20260506132528 79 73 2.0 6.0 0.00 0.00 0.00 75 940.9
20260506132429 79 81 2.0 6.0 0.00 0.00 0.00 75 940.9
20260506132330 79 80 2.0 6.0 0.00 0.00 0.00 74 940.9
20260506132230 79 50 2.0 5.0 0.00 0.00 0.00 73 940.9
20260506132130 79 33 2.0 5.0 0.00 0.00 0.00 72 940.9
20260506132029 79 77 2.0 5.0 0.00 0.00 0.00 70 940.9
20260506131930 79 60 2.0 5.0 0.00 0.00 0.00 69 940.9
20260506131829 79 34 2.0 5.0 0.00 0.00 0.00 70 940.9
20260506131730 79 114 2.0 5.0 0.00 0.00 0.00 69 940.9
20260506131630 80 35 1.0 5.0 0.00 0.00 0.00 65 940.9
20260506131530 79 40 1.0 3.0 0.00 0.00 0.00 65 940.9
20260506131429 79 24 1.0 3.0 0.00 0.00 0.00 65 940.9
20260506131330 79 21 1.0 3.0 0.00 0.00 0.00 65 940.9
20260506131230 79 52 1.0 3.0 0.00 0.00 0.00 64 940.9
20260506131125 79 61 1.0 3.0 0.00 0.00 0.00 64 940.8
20260506131025 80 0 0.0 3.0 0.00 0.00 0.00 63 940.8
20260506130926 79 87 0.0 2.0 0.00 0.00 0.00 63 940.8
20260506130825 79 0 0.0 2.0 0.00 0.00 0.00 63 940.8
20260506130725 79 0 0.0 2.0 0.00 0.00 0.00 63 940.7
20260506130625 79 0 0.0 2.0 0.00 0.00 0.00 63 940.7
20260506130524 79 55 0.0 2.0 0.00 0.00 0.00 63 940.7
20260506130423 79 0 0.0 2.0 0.00 0.00 0.00 63 940.7
20260506130324 79 0 0.0 2.0 0.00 0.00 0.00 63 940.7
20260506130221 79 2 0.0 2.0 0.00 0.00 0.00 63 940.7
20260506130116 79 79 0.0 2.0 0.00 0.00 0.00 63 940.7
20260506130017 79 0 0.0 2.0 0.00 0.00 0.00 63 940.6
20260506125915 79 116 0.0 1.0 0.00 0.00 0.00 63 940.6
20260506125814 78 0 0.0 1.0 0.00 0.00 0.00 63 940.6
20260506125715 78 0 0.0 1.0 0.00 0.00 0.00 63 940.6
20260506125614 78 0 0.0 1.0 0.00 0.00 0.00 63 940.6
20260506125515 78 0 0.0 2.0 0.00 0.00 0.00 63 940.6
20260506125414 78 142 0.0 2.0 0.00 0.00 0.00 63 940.6
20260506125315 78 0 0.0 2.0 0.00 0.00 0.00 64 940.6
20260506125215 78 0 0.0 2.0 0.00 0.00 0.00 64 940.5
20260506125115 77 0 0.0 2.0 0.00 0.00 0.00 65 940.5
20260506125015 77 0 0.0 2.0 0.00 0.00 0.00 65 940.5
20260506124914 77 0 0.0 2.0 0.00 0.00 0.00 66 940.5
20260506124815 77 0 0.0 2.0 0.00 0.00 0.00 67 940.5
20260506124715 77 0 0.0 2.0 0.00 0.00 0.00 67 940.5
20260506124614 77 97 0.0 2.0 0.00 0.00 0.00 67 940.4
20260506124500 77 119 0.0 2.0 0.00 0.00 0.00 65 940.4
20260506124400 77 128 0.0 2.0 0.00 0.00 0.00 64 940.4
20260506124244 77 178 0.0 1.0 0.00 0.00 0.00 63 940.4
20260506124143 77 187 0.0 1.0 0.00 0.00 0.00 63 940.4
20260506124043 77 0 0.0 1.0 0.00 0.00 0.00 64 940.4
20260506123944 77 0 0.0 1.0 0.00 0.00 0.00 64 940.4
20260506123843 76 0 0.0 1.0 0.00 0.00 0.00 64 940.4
20260506123744 76 0 0.0 1.0 0.00 0.00 0.00 64 940.3
20260506123645 76 0 0.0 1.0 0.00 0.00 0.00 63 940.3
20260506123543 76 0 0.0 1.0 0.00 0.00 0.00 63 940.3
20260506123444 76 0 0.0 1.0 0.00 0.00 0.00 63 940.3
20260506123344 76 225 0.0 1.0 0.00 0.00 0.00 63 940.3
20260506123243 76 0 0.0 0.0 0.00 0.00 0.00 63 940.3
20260506123144 76 0 0.0 0.0 0.00 0.00 0.00 63 940.3
20260506123044 76 0 0.0 0.0 0.00 0.00 0.00 63 940.3
20260506122944 76 0 0.0 1.0 0.00 0.00 0.00 63 940.3
20260506122844 76 0 0.0 1.0 0.00 0.00 0.00 63 940.3
20260506122744 76 0 0.0 2.0 0.00 0.00 0.00 63 940.3
20260506122644 76 0 0.0 2.0 0.00 0.00 0.00 63 940.3
20260506122544 76 0 0.0 2.0 0.00 0.00 0.00 63 940.3
20260506122444 76 0 0.0 2.0 0.00 0.00 0.00 63 940.2
20260506122344 76 0 1.0 2.0 0.00 0.00 0.00 63 940.2
20260506122244 76 0 1.0 2.0 0.00 0.00 0.00 64 940.2
20260506122144 76 0 1.0 2.0 0.00 0.00 0.00 63 940.2
20260506122044 76 236 1.0 2.0 0.00 0.00 0.00 64 940.1
20260506121944 76 257 1.0 2.0 0.00 0.00 0.00 64 940.1
20260506121844 76 252 1.0 2.0 0.00 0.00 0.00 64 940.1
20260506121744 76 233 1.0 2.0 0.00 0.00 0.00 64 940.1
20260506121644 76 252 1.0 2.0 0.00 0.00 0.00 64 940.1
20260506121544 76 152 2.0 2.0 0.00 0.00 0.00 65 940.1
20260506121444 76 246 2.0 2.0 0.00 0.00 0.00 65 940.0
20260506121345 76 222 2.0 2.0 0.00 0.00 0.00 68 940.0
20260506121244 76 261 2.0 2.0 0.00 0.00 0.00 68 940.0
20260506121144 76 331 2.0 2.0 0.00 0.00 0.00 68 940.0
20260506121045 76 319 2.0 2.0 0.00 0.00 0.00 68 940.0
20260506120944 76 343 1.0 2.0 0.00 0.00 0.00 68 940.0
20260506120844 76 336 1.0 2.0 0.00 0.00 0.00 68 940.0
20260506120744 76 347 1.0 2.0 0.00 0.00 0.00 68 940.0
20260506120644 76 356 1.0 2.0 0.00 0.00 0.00 69 940.0
20260506120544 76 6 1.0 2.0 0.00 0.00 0.00 69 939.9
20260506120445 76 37 1.0 2.0 0.00 0.00 0.00 70 940.0
20260506120344 76 48 1.0 2.0 0.00 0.00 0.00 70 940.0
20260506120244 76 0 1.0 2.0 0.00 0.00 0.00 70 940.0
20260506120144 76 0 1.0 2.0 0.00 0.00 0.00 70 940.0
20260506120045 76 0 1.0 2.0 0.00 0.00 0.00 70 939.9
20260506115944 76 0 1.0 2.0 0.00 0.00 0.00 70 939.9
20260506115844 76 0 2.0 2.0 0.00 0.00 0.00 70 939.9
20260506115745 76 316 2.0 2.0 0.00 0.00 0.00 70 939.9
20260506115631 76 345 2.0 2.0 0.00 0.00 0.00 70 939.9
20260506115532 76 315 2.0 2.0 0.00 0.00 0.00 70 939.9
20260506115431 76 314 2.0 2.0 0.00 0.00 0.00 69 939.9
20260506115331 76 314 1.0 2.0 0.00 0.00 0.00 69 939.9
20260506115231 76 322 1.0 2.0 0.00 0.00 0.00 69 939.9
20260506115132 76 307 1.0 2.0 0.00 0.00 0.00 68 939.9
20260506115031 76 334 1.0 2.0 0.00 0.00 0.00 68 939.9
20260506114932 76 327 1.0 2.0 0.00 0.00 0.00 68 939.8
20260506114832 76 300 1.0 2.0 0.00 0.00 0.00 69 939.8
20260506114731 76 287 1.0 2.0 0.00 0.00 0.00 69 939.8
20260506114632 76 321 0.0 2.0 0.00 0.00 0.00 69 939.8
20260506114531 76 0 0.0 2.0 0.00 0.00 0.00 69 939.8
20260506114431 76 2 0.0 2.0 0.00 0.00 0.00 68 939.8
20260506114331 76 0 0.0 2.0 0.00 0.00 0.00 68 939.7
20260506114230 76 8 0.0 2.0 0.00 0.00 0.00 68 939.7
20260506114131 76 20 0.0 2.0 0.00 0.00 0.00 67 939.7
20260506114032 76 41 0.0 2.0 0.00 0.00 0.00 67 939.7
20260506113931 76 0 0.0 2.0 0.00 0.00 0.00 67 939.7
20260506113831 76 0 0.0 2.0 0.00 0.00 0.00 67 939.6
20260506113731 76 0 1.0 2.0 0.00 0.00 0.00 67 939.6
20260506113632 76 0 1.0 2.0 0.00 0.00 0.00 67 939.6
20260506113531 76 0 1.0 2.0 0.00 0.00 0.00 67 939.6
20260506113431 76 0 1.0 2.0 0.00 0.00 0.00 67 939.6
20260506113331 76 0 1.0 2.0 0.00 0.00 0.00 67 939.6
20260506113231 76 0 1.0 2.0 0.00 0.00 0.00 67 939.6
20260506113131 76 105 1.0 2.0 0.00 0.00 0.00 67 939.6
20260506113032 76 120 1.0 2.0 0.00 0.00 0.00 67 939.5
20260506112931 76 89 0.0 2.0 0.00 0.00 0.00 67 939.5
20260506112831 77 100 0.0 2.0 0.00 0.00 0.00 67 939.5
20260506112732 77 76 0.0 2.0 0.00 0.00 0.00 66 939.5
20260506112631 77 0 0.0 1.0 0.00 0.00 0.00 66 939.5
20260506112532 77 0 0.0 1.0 0.00 0.00 0.00 66 939.5
20260506112431 77 0 0.0 1.0 0.00 0.00 0.00 66 939.5
20260506112331 77 0 0.0 1.0 0.00 0.00 0.00 66 939.5
20260506112231 77 0 0.0 1.0 0.00 0.00 0.00 66 939.5
20260506112132 77 0 0.0 1.0 0.00 0.00 0.00 65 939.5
20260506112031 77 0 0.0 1.0 0.00 0.00 0.00 65 939.5
20260506111931 77 0 0.0 1.0 0.00 0.00 0.00 65 939.5
20260506111831 77 0 0.0 1.0 0.00 0.00 0.00 65 939.4
20260506111732 77 0 0.0 1.0 0.00 0.00 0.00 65 939.4
20260506111631 77 242 0.0 1.0 0.00 0.00 0.00 65 939.4
20260506111518 77 237 0.0 1.0 0.00 0.00 0.00 66 939.4
20260506111416 77 199 0.0 1.0 0.00 0.00 0.00 66 939.4
20260506111317 77 0 0.0 0.0 0.00 0.00 0.00 67 939.4
20260506111217 77 0 0.0 0.0 0.00 0.00 0.00 67 939.4
20260506111116 77 0 0.0 0.0 0.00 0.00 0.00 67 939.4
20260506111017 77 0 0.0 0.0 0.00 0.00 0.00 67 939.4
20260506110916 77 0 0.0 0.0 0.00 0.00 0.00 67 939.4
20260506110816 77 0 0.0 0.0 0.00 0.00 0.00 67 939.4
20260506110717 77 0 0.0 0.0 0.00 0.00 0.00 67 939.3
20260506110616 77 0 0.0 0.0 0.00 0.00 0.00 67 939.3
20260506110503 77 0 0.0 0.0 0.00 0.00 0.00 67 939.3
20260506110402 77 0 0.0 0.0 0.00 0.00 0.00 66 939.3
20260506110302 77 0 0.0 0.0 0.00 0.00 0.00 66 939.3
20260506110202 77 0 0.0 0.0 0.00 0.00 0.00 66 939.3
20260506110002 77 0 0.0 0.0 0.00 0.00 0.00 66 939.3
20260506105901 77 0 0.0 0.0 0.00 0.00 0.00 66 939.3
20260506105801 77 0 0.0 2.0 0.00 0.00 0.00 66 939.3
20260506105702 77 0 0.0 2.0 0.00 0.00 0.00 66 939.2
20260506105602 77 0 0.0 2.0 0.00 0.00 0.00 66 939.3
20260506105447 77 0 0.0 2.0 0.00 0.00 0.00 66 939.3
20260506105346 77 0 0.0 2.0 0.00 0.00 0.00 66 939.3
20260506105246 77 0 0.0 2.0 0.00 0.00 0.00 66 939.3
20260506105146 77 0 0.0 2.0 0.00 0.00 0.00 66 939.3
20260506105045 77 0 0.0 2.0 0.00 0.00 0.00 66 939.3
20260506104946 77 0 0.0 2.0 0.00 0.00 0.00 66 939.3
20260506104846 77 156 0.0 2.0 0.00 0.00 0.00 65 939.3
20260506104746 77 171 0.0 2.0 0.00 0.00 0.00 66 939.3
20260506104645 77 0 0.0 0.0 0.00 0.00 0.00 67 939.3
20260506104546 77 0 0.0 0.0 0.00 0.00 0.00 67 939.3
20260506104447 77 0 0.0 1.0 0.00 0.00 0.00 68 939.3
20260506104345 77 0 0.0 1.0 0.00 0.00 0.00 68 939.3
20260506104245 77 0 0.0 1.0 0.00 0.00 0.00 69 939.2
20260506104146 77 0 0.0 1.0 0.00 0.00 0.00 70 939.2
20260506104045 77 0 0.0 1.0 0.00 0.00 0.00 71 939.2
20260506103946 77 0 0.0 1.0 0.00 0.00 0.00 71 939.2
20260506103846 77 0 0.0 2.0 0.00 0.00 0.00 72 939.3
20260506103746 77 0 0.0 2.0 0.00 0.00 0.00 72 939.3
20260506103646 77 0 0.0 2.0 0.00 0.00 0.00 73 939.2
20260506103546 77 121 0.0 2.0 0.00 0.00 0.00 73 939.3
20260506103446 77 0 0.0 2.0 0.00 0.00 0.00 73 939.3
20260506103346 78 120 0.0 2.0 0.00 0.00 0.00 73 939.3
20260506103246 78 0 0.0 2.0 0.00 0.00 0.00 72 939.3
20260506103145 78 0 0.0 2.0 0.00 0.00 0.00 73 939.3
20260506103046 78 0 0.0 2.0 0.00 0.00 0.00 73 939.2
20260506102946 78 88 0.0 2.0 0.00 0.00 0.00 73 939.2
20260506102846 78 0 0.0 2.0 0.00 0.00 0.00 73 939.2
20260506102746 78 0 0.0 2.0 0.00 0.00 0.00 72 939.3
20260506102646 78 0 0.0 2.0 0.00 0.00 0.00 72 939.3
20260506102546 78 0 0.0 2.0 0.00 0.00 0.00 71 939.3
20260506102446 78 0 0.0 2.0 0.00 0.00 0.00 71 939.3
20260506102346 78 0 0.0 2.0 0.00 0.00 0.00 71 939.2
20260506102246 78 104 0.0 2.0 0.00 0.00 0.00 71 939.2
20260506102147 78 100 1.0 3.0 0.00 0.00 0.00 71 939.2
20260506102046 78 127 1.0 3.0 0.00 0.00 0.00 70 939.2
20260506101946 78 0 1.0 3.0 0.00 0.00 0.00 69 939.1
20260506101846 78 0 1.0 3.0 0.00 0.00 0.00 69 939.1
20260506101746 78 0 1.0 3.0 0.00 0.00 0.00 69 939.1
20260506101646 78 0 1.0 3.0 0.00 0.00 0.00 69 939.1
20260506101546 78 0 1.0 3.0 0.00 0.00 0.00 68 939.1
20260506101446 78 98 2.0 3.0 0.00 0.00 0.00 68 939.1
20260506101332 78 112 2.0 3.0 0.00 0.00 0.00 68 939.1
20260506101233 78 86 2.0 3.0 0.00 0.00 0.00 67 939.1
20260506101133 78 82 2.0 3.0 0.00 0.00 0.00 67 939.1
20260506101033 78 66 2.0 3.0 0.00 0.00 0.00 67 939.1
20260506100933 78 69 2.0 3.0 0.00 0.00 0.00 67 939.1
20260506100818 78 53 2.0 3.0 0.00 0.00 0.00 67 939.1
20260506100719 78 71 2.0 3.0 0.00 0.00 0.00 67 939.0
20260506100604 78 68 2.0 3.0 0.00 0.00 0.00 68 939.0
20260506100503 78 84 2.0 3.0 0.00 0.00 0.00 68 939.0
20260506100404 78 73 2.0 3.0 0.00 0.00 0.00 69 939.0
20260506100302 78 0 2.0 3.0 0.00 0.00 0.00 69 939.0
20260506100146 78 63 2.0 3.0 0.00 0.00 0.00 68 939.0
20260506100047 78 50 2.0 3.0 0.00 0.00 0.00 68 939.0
20260506095946 79 64 1.0 3.0 0.00 0.00 0.00 68 939.0
20260506095847 79 62 1.0 3.0 0.00 0.00 0.00 68 939.0
20260506095746 79 62 1.0 2.0 0.00 0.00 0.00 68 939.0
20260506095647 79 66 1.0 3.0 0.00 0.00 0.00 68 938.9
20260506095547 79 72 1.0 3.0 0.00 0.00 0.00 67 938.9
20260506095446 79 86 1.0 3.0 0.00 0.00 0.00 68 938.9
20260506095347 79 0 1.0 3.0 0.00 0.00 0.00 68 938.9
20260506095247 79 72 1.0 3.0 0.00 0.00 0.00 68 939.0
20260506095147 79 69 1.0 3.0 0.00 0.00 0.00 68 939.0
20260506095048 79 109 2.0 3.0 0.00 0.00 0.00 68 938.9
20260506094947 79 75 2.0 3.0 0.00 0.00 0.00 68 938.9
20260506094846 79 93 2.0 3.0 0.00 0.00 0.00 68 938.9
20260506094747 79 93 2.0 3.0 0.00 0.00 0.00 68 938.9
20260506094647 79 91 2.0 2.0 0.00 0.00 0.00 69 938.9
20260506094547 79 116 2.0 3.0 0.00 0.00 0.00 69 938.9
20260506094447 79 84 2.0 3.0 0.00 0.00 0.00 69 938.9
20260506094346 79 82 2.0 3.0 0.00 0.00 0.00 70 938.9
20260506094246 79 87 2.0 3.0 0.00 0.00 0.00 70 938.8
20260506094147 79 91 2.0 3.0 0.00 0.00 0.00 70 938.8
20260506094047 79 111 1.0 3.0 0.00 0.00 0.00 70 938.8
20260506093946 79 83 1.0 3.0 0.00 0.00 0.00 70 938.8
20260506093847 79 85 1.0 3.0 0.00 0.00 0.00 70 938.8
20260506093746 79 101 2.0 3.0 0.00 0.00 0.00 70 938.7
20260506093647 79 119 2.0 6.0 0.00 0.00 0.00 71 938.7
20260506093533 79 128 2.0 6.0 0.00 0.00 0.00 71 938.7
20260506093434 79 108 2.0 6.0 0.00 0.00 0.00 71 938.7
20260506093334 79 82 2.0 6.0 0.00 0.00 0.00 71 938.7
20260506093234 79 92 2.0 6.0 0.00 0.00 0.00 72 938.7
20260506093130 79 0 2.0 6.0 0.00 0.00 0.00 72 938.7
20260506093025 79 134 2.0 6.0 0.00 0.00 0.00 72 938.7
20260506092924 79 145 3.0 6.0 0.00 0.00 0.00 73 938.7
20260506092824 79 115 3.0 6.0 0.00 0.00 0.00 73 938.7
20260506092724 79 98 3.0 6.0 0.00 0.00 0.00 72 938.7
20260506092619 79 124 3.0 6.0 0.00 0.00 0.00 72 938.7
20260506092503 79 118 2.0 4.0 0.00 0.00 0.00 72 938.7
20260506092404 79 98 2.0 4.0 0.00 0.00 0.00 72 938.8
20260506092306 79 117 2.0 4.0 0.00 0.00 0.00 72 938.8
20260506092148 79 135 2.0 4.0 0.00 0.00 0.00 72 938.8
20260506092047 79 128 2.0 4.0 0.00 0.00 0.00 71 938.8
20260506091948 79 123 2.0 5.0 0.00 0.00 0.00 71 938.8
20260506091848 79 111 2.0 5.0 0.00 0.00 0.00 71 938.8
20260506091747 79 99 2.0 5.0 0.00 0.00 0.00 71 938.8
20260506091648 79 109 2.0 5.0 0.00 0.00 0.00 71 938.9
20260506091549 79 75 2.0 5.0 0.00 0.00 0.00 70 938.8
20260506091443 79 88 3.0 5.0 0.00 0.00 0.00 70 938.8
20260506091343 79 92 3.0 5.0 0.00 0.00 0.00 70 938.8
20260506091243 79 90 3.0 5.0 0.00 0.00 0.00 70 938.8
20260506091137 79 113 3.0 5.0 0.00 0.00 0.00 69 938.8
20260506091034 79 110 3.0 5.0 0.00 0.00 0.00 68 938.8
20260506090934 79 111 2.0 4.0 0.00 0.00 0.00 67 938.9
20260506090834 79 116 2.0 4.0 0.00 0.00 0.00 66 938.9
20260506090734 79 124 2.0 4.0 0.00 0.00 0.00 64 938.9
20260506090634 79 104 2.0 4.0 0.00 0.00 0.00 63 939.0
20260506090534 79 111 2.0 4.0 0.00 0.00 0.00 62 939.0
20260506090434 79 138 2.0 4.0 0.00 0.00 0.00 61 939.0
20260506090334 79 115 2.0 3.0 0.00 0.00 0.00 61 939.0
20260506090219 79 132 2.0 3.0 0.00 0.00 0.00 60 939.0
20260506090119 79 91 2.0 3.0 0.00 0.00 0.00 59 939.0
20260506090019 79 88 2.0 3.0 0.00 0.00 0.00 58 939.0
20260506085919 79 93 2.0 4.0 0.00 0.00 0.00 58 939.0
20260506085820 79 71 2.0 4.0 0.00 0.00 0.00 58 939.1
20260506085720 79 85 2.0 4.0 0.00 0.00 0.00 57 939.1
20260506085619 79 90 2.0 4.0 0.00 0.00 0.00 57 939.1
20260506085519 79 86 2.0 4.0 0.00 0.00 0.00 57 939.1
20260506085420 79 86 2.0 4.0 0.00 0.00 0.00 57 939.1
20260506085319 79 30 2.0 4.0 0.00 0.00 0.00 57 939.2
20260506085219 79 26 2.0 4.0 0.00 0.00 0.00 57 939.2
20260506085120 80 40 3.0 4.0 0.00 0.00 0.00 57 939.2
20260506085020 80 20 3.0 4.0 0.00 0.00 0.00 57 939.2
20260506084919 80 1 3.0 4.0 0.00 0.00 0.00 57 939.2
20260506084820 80 352 3.0 4.0 0.00 0.00 0.00 57 939.1
20260506084720 80 5 3.0 4.0 0.00 0.00 0.00 57 939.1
20260506084619 80 342 3.0 4.0 0.00 0.00 0.00 57 939.1
20260506084519 80 5 3.0 4.0 0.00 0.00 0.00 57 939.1
20260506084420 80 358 3.0 4.0 0.00 0.00 0.00 57 939.1
20260506084319 80 4 3.0 4.0 0.00 0.00 0.00 57 939.1
20260506084220 80 2 3.0 4.0 0.00 0.00 0.00 57 939.1
20260506084119 80 20 3.0 4.0 0.00 0.00 0.00 56 939.0
20260506084020 80 39 3.0 4.0 0.00 0.00 0.00 56 939.0
20260506083919 80 23 3.0 4.0 0.00 0.00 0.00 56 939.0
20260506083821 80 28 3.0 4.0 0.00 0.00 0.00 56 939.0
20260506083719 80 28 3.0 4.0 0.00 0.00 0.00 56 939.0
20260506083620 80 53 3.0 5.0 0.00 0.00 0.00 56 939.0
20260506083519 81 61 3.0 5.0 0.00 0.00 0.00 56 939.0
20260506083420 81 24 3.0 5.0 0.00 0.00 0.00 56 939.0
20260506083320 81 20 3.0 5.0 0.00 0.00 0.00 56 939.0
20260506083219 81 28 3.0 6.0 0.00 0.00 0.00 56 939.0
20260506083120 81 357 3.0 6.0 0.00 0.00 0.00 56 939.0
20260506083020 81 23 3.0 6.0 0.00 0.00 0.00 56 939.0
20260506082919 81 19 4.0 6.0 0.00 0.00 0.00 56 938.9
20260506082814 81 1 4.0 6.0 0.00 0.00 0.00 55 938.9
20260506082714 81 0 4.0 6.0 0.00 0.00 0.00 55 938.9
20260506082608 81 318 4.0 6.0 0.00 0.00 0.00 55 938.9
20260506082508 81 319 4.0 6.0 0.00 0.00 0.00 55 938.9
20260506082408 81 340 4.0 6.0 0.00 0.00 0.00 55 938.9
20260506082308 82 329 4.0 6.0 0.00 0.00 0.00 55 938.9
20260506082207 82 345 4.0 6.0 0.00 0.00 0.00 55 938.9
20260506082108 82 317 4.0 6.0 0.00 0.00 0.00 55 938.9
20260506082009 82 315 4.0 6.0 0.00 0.00 0.00 55 938.8
20260506081908 82 304 4.0 6.0 0.00 0.00 0.00 55 938.8
20260506081808 82 327 4.0 6.0 0.00 0.00 0.00 55 938.8
20260506081708 82 329 4.0 6.0 0.00 0.00 0.00 55 938.8
20260506081608 82 302 4.0 6.0 0.00 0.00 0.00 55 938.8
20260506081508 82 305 4.0 6.0 0.00 0.00 0.00 55 938.8
20260506081408 82 311 4.0 6.0 0.00 0.00 0.00 54 938.8
20260506081308 82 296 4.0 6.0 0.00 0.00 0.00 54 938.8
20260506081208 82 288 4.0 6.0 0.00 0.00 0.00 54 938.8
20260506081108 82 299 4.0 6.0 0.00 0.00 0.00 54 938.8
20260506081008 82 283 4.0 6.0 0.00 0.00 0.00 54 938.8
20260506080908 82 292 4.0 6.0 0.00 0.00 0.00 54 938.7
20260506080808 82 307 4.0 6.0 0.00 0.00 0.00 54 938.7
20260506080708 82 308 3.0 6.0 0.00 0.00 0.00 54 938.7
20260506080609 82 298 4.0 6.0 0.00 0.00 0.00 54 938.7
20260506080508 82 306 4.0 6.0 0.00 0.00 0.00 54 938.7
20260506080405 82 304 4.0 6.0 0.00 0.00 0.00 54 938.7
20260506080306 82 320 4.0 5.0 0.00 0.00 0.00 54 938.7
20260506080206 82 289 3.0 5.0 0.00 0.00 0.00 54 938.7
20260506080105 82 296 3.0 5.0 0.00 0.00 0.00 54 938.7
20260506073449 83 295 3.0 4.0 0.00 0.00 0.00 53 938.6
20260506073349 83 311 2.0 4.0 0.00 0.00 0.00 53 938.6
20260506073249 83 310 2.0 4.0 0.00 0.00 0.00 53 938.6
20260506073148 83 302 2.0 4.0 0.00 0.00 0.00 53 938.6
20260506073049 83 303 2.0 4.0 0.00 0.00 0.00 53 938.6
20260506072948 83 298 2.0 4.0 0.00 0.00 0.00 53 938.6
20260506072849 83 275 2.0 4.0 0.00 0.00 0.00 53 938.6
20260506072749 83 283 2.0 4.0 0.00 0.00 0.00 53 938.6
20260506072649 83 258 2.0 3.0 0.00 0.00 0.00 53 938.6
20260506072549 83 298 1.0 2.0 0.00 0.00 0.00 53 938.5
20260506072449 83 261 2.0 2.0 0.00 0.00 0.00 53 938.5
20260506072350 83 283 2.0 2.0 0.00 0.00 0.00 52 938.6
20260506072249 83 280 2.0 3.0 0.00 0.00 0.00 52 938.6
20260506072149 83 277 2.0 4.0 0.00 0.00 0.00 52 938.6
20260506072036 83 286 2.0 5.0 0.00 0.00 0.00 52 938.6
20260506071936 83 317 2.0 5.0 0.00 0.00 0.00 52 938.6
20260506071835 83 305 2.0 5.0 0.00 0.00 0.00 52 938.6
20260506071720 84 280 3.0 5.0 0.00 0.00 0.00 52 938.6
20260506071620 84 266 3.0 6.0 0.00 0.00 0.00 52 938.6
20260506071506 84 238 3.0 6.0 0.00 0.00 0.00 52 938.6
20260506071406 84 306 3.0 6.0 0.00 0.00 0.00 52 938.6
20260506071305 84 272 3.0 6.0 0.00 0.00 0.00 52 938.6
20260506071206 84 286 3.0 6.0 0.00 0.00 0.00 52 938.6
20260506071058 84 298 3.0 6.0 0.00 0.00 0.00 51 938.6
20260506070957 84 315 3.0 6.0 0.00 0.00 0.00 51 938.6
20260506070857 84 295 3.0 6.0 0.00 0.00 0.00 51 938.5
20260506070757 84 323 3.0 6.0 0.00 0.00 0.00 51 938.5
20260506070657 84 309 4.0 6.0 0.00 0.00 0.00 51 938.5
20260506070557 84 303 3.0 5.0 0.00 0.00 0.00 51 938.5
20260506070458 84 333 3.0 5.0 0.00 0.00 0.00 51 938.5
20260506070357 84 308 3.0 5.0 0.00 0.00 0.00 51 938.5
20260506070250 84 291 3.0 5.0 0.00 0.00 0.00 51 938.5
20260506070149 84 294 3.0 5.0 0.00 0.00 0.00 51 938.5
20260506062450 85 283 3.0 5.0 0.00 0.00 0.00 49 938.4
20260506062336 85 267 3.0 4.0 0.00 0.00 0.00 49 938.4
20260506062221 85 296 2.0 4.0 0.00 0.00 0.00 49 938.4
20260506062122 85 303 2.0 4.0 0.00 0.00 0.00 49 938.4
20260506062022 85 285 2.0 4.0 0.00 0.00 0.00 49 938.4
20260506061922 85 301 3.0 4.0 0.00 0.00 0.00 49 938.4
20260506061822 85 282 3.0 5.0 0.00 0.00 0.00 49 938.3
20260506061722 85 296 3.0 5.0 0.00 0.00 0.00 49 938.3
20260506061622 85 299 3.0 6.0 0.00 0.00 0.00 49 938.3
20260506061522 85 278 3.0 6.0 0.00 0.00 0.00 49 938.3
20260506061422 85 301 3.0 6.0 0.00 0.00 0.00 49 938.3
20260506061316 85 307 3.0 6.0 0.00 0.00 0.00 49 938.4
20260506061210 85 289 4.0 6.0 0.00 0.00 0.00 49 938.4
20260506061110 85 252 4.0 6.0 0.00 0.00 0.00 49 938.3
20260506061010 85 272 4.0 6.0 0.00 0.00 0.00 49 938.3
20260506060910 85 262 4.0 6.0 0.00 0.00 0.00 49 938.3
20260506060811 85 291 4.0 6.0 0.00 0.00 0.00 49 938.3
20260506060710 85 292 4.0 6.0 0.00 0.00 0.00 49 938.3
20260506060611 85 296 4.0 6.0 0.00 0.00 0.00 48 938.3
20260506060510 85 303 4.0 6.0 0.00 0.00 0.00 48 938.3
20260506060411 85 315 4.0 6.0 0.00 0.00 0.00 48 938.3
20260506060311 85 314 3.0 6.0 0.00 0.00 0.00 48 938.3
20260506060210 85 292 3.0 6.0 0.00 0.00 0.00 48 938.3
20260506060107 85 292 3.0 5.0 0.00 0.00 0.00 48 938.3
20260506051338 86 295 3.0 5.0 0.00 0.00 0.00 46 938.2
20260506051223 86 303 3.0 5.0 0.00 0.00 0.00 46 938.2
20260506051108 86 299 3.0 5.0 0.00 0.00 0.00 46 938.2
20260506051008 86 305 3.0 6.0 0.00 0.00 0.00 46 938.2
20260506050908 86 238 3.0 6.0 0.00 0.00 0.00 46 938.2
20260506050808 86 283 3.0 6.0 0.00 0.00 0.00 46 938.2
20260506050708 86 271 3.0 6.0 0.00 0.00 0.00 46 938.2
20260506050609 86 257 3.0 6.0 0.00 0.00 0.00 46 938.1
20260506050459 86 308 3.0 6.0 0.00 0.00 0.00 45 938.1
20260506050359 86 295 3.0 6.0 0.00 0.00 0.00 45 938.1
20260506050253 86 290 3.0 6.0 0.00 0.00 0.00 45 938.1
20260506050153 86 277 3.0 6.0 0.00 0.00 0.00 45 938.1
20260506045053 86 295 4.0 6.0 0.00 0.00 0.00 45 938.0
20260506044953 86 292 4.0 6.0 0.00 0.00 0.00 45 937.9
20260506044853 86 280 4.0 7.0 0.00 0.00 0.00 45 937.9
20260506044753 87 307 4.0 7.0 0.00 0.00 0.00 45 937.9
20260506044653 87 302 4.0 7.0 0.00 0.00 0.00 44 937.9
20260506044554 87 304 4.0 7.0 0.00 0.00 0.00 44 937.9
20260506044453 87 293 4.0 7.0 0.00 0.00 0.00 44 937.8
20260506044354 87 293 4.0 7.0 0.00 0.00 0.00 44 937.9
20260506044253 87 284 4.0 7.0 0.00 0.00 0.00 44 937.9
20260506044154 87 292 4.0 7.0 0.00 0.00 0.00 44 937.9
20260506044054 87 310 4.0 7.0 0.00 0.00 0.00 44 937.9
20260506043953 87 289 3.0 7.0 0.00 0.00 0.00 43 937.9
20260506043854 87 279 3.0 6.0 0.00 0.00 0.00 43 937.9
20260506043753 87 307 3.0 6.0 0.00 0.00 0.00 43 937.9
20260506043653 87 291 3.0 6.0 0.00 0.00 0.00 43 937.9
20260506043554 87 261 3.0 6.0 0.00 0.00 0.00 43 937.9
20260506043452 87 279 3.0 6.0 0.00 0.00 0.00 43 937.9
20260506043352 87 270 3.0 6.0 0.00 0.00 0.00 42 937.9
20260506043252 87 273 3.0 6.0 0.00 0.00 0.00 42 937.9
20260506043152 87 278 3.0 5.0 0.00 0.00 0.00 42 937.8
20260506043053 87 224 3.0 5.0 0.00 0.00 0.00 42 937.8
20260506042952 87 293 3.0 5.0 0.00 0.00 0.00 42 937.8
20260506042852 87 288 3.0 5.0 0.00 0.00 0.00 42 937.8
20260506042752 87 285 4.0 6.0 0.00 0.00 0.00 41 937.8
20260506042653 87 294 4.0 6.0 0.00 0.00 0.00 41 937.7
20260506042552 87 286 4.0 6.0 0.00 0.00 0.00 41 937.7
20260506042452 87 270 4.0 6.0 0.00 0.00 0.00 41 937.7
20260506042352 87 282 4.0 6.0 0.00 0.00 0.00 41 937.7
20260506042254 87 296 4.0 6.0 0.00 0.00 0.00 41 937.7
20260506042152 87 269 4.0 6.0 0.00 0.00 0.00 41 937.6
20260506042052 88 286 4.0 6.0 0.00 0.00 0.00 40 937.6
20260506041952 88 257 3.0 6.0 0.00 0.00 0.00 40 937.6
20260506041853 88 290 3.0 6.0 0.00 0.00 0.00 40 937.6
20260506041752 88 300 3.0 5.0 0.00 0.00 0.00 40 937.6
20260506041652 88 286 3.0 5.0 0.00 0.00 0.00 40 937.6
20260506041553 88 310 3.0 5.0 0.00 0.00 0.00 40 937.5
20260506041453 88 260 4.0 6.0 0.00 0.00 0.00 40 937.6
20260506041352 88 260 4.0 6.0 0.00 0.00 0.00 40 937.6
20260506041252 88 278 4.0 7.0 0.00 0.00 0.00 41 937.5
20260506041153 88 276 4.0 7.0 0.00 0.00 0.00 41 937.5
20260506041048 88 292 4.0 9.0 0.00 0.00 0.00 41 937.5
20260506040947 88 288 4.0 9.0 0.00 0.00 0.00 41 937.5
20260506040848 88 286 4.0 9.0 0.00 0.00 0.00 41 937.5
20260506040748 88 256 5.0 9.0 0.00 0.00 0.00 41 937.4
20260506040648 88 289 5.0 9.0 0.00 0.00 0.00 41 937.4
20260506040548 88 294 5.0 9.0 0.00 0.00 0.00 41 937.4
20260506040448 89 293 5.0 9.0 0.00 0.00 0.00 40 937.4
20260506040348 89 303 5.0 9.0 0.00 0.00 0.00 40 937.3
20260506040247 89 268 5.0 9.0 0.00 0.00 0.00 40 937.3
20260506040148 89 291 5.0 9.0 0.00 0.00 0.00 40 937.3
20260506040048 89 291 5.0 9.0 0.00 0.00 0.00 40 937.3
20260506035948 89 307 5.0 7.0 0.00 0.00 0.00 40 937.3
20260506035848 89 302 5.0 7.0 0.00 0.00 0.00 40 937.3
20260506035748 89 292 5.0 7.0 0.00 0.00 0.00 40 937.2
20260506035648 89 284 5.0 7.0 0.00 0.00 0.00 40 937.2
20260506035548 89 300 5.0 7.0 0.00 0.00 0.00 39 937.2
20260506035448 89 296 5.0 7.0 0.00 0.00 0.00 39 937.2
20260506035348 89 312 5.0 7.0 0.00 0.00 0.00 39 937.2
20260506035248 89 301 5.0 7.0 0.00 0.00 0.00 39 937.1
20260506035148 89 297 5.0 7.0 0.00 0.00 0.00 39 937.1
20260506035049 89 300 5.0 7.0 0.00 0.00 0.00 39 937.1
20260506034948 89 321 5.0 7.0 0.00 0.00 0.00 39 937.1
20260506034849 89 283 5.0 7.0 0.00 0.00 0.00 39 937.1
20260506034748 89 303 5.0 7.0 0.00 0.00 0.00 39 937.1
20260506034648 89 317 5.0 7.0 0.00 0.00 0.00 39 937.0
20260506034549 89 329 5.0 7.0 0.00 0.00 0.00 39 937.0
20260506034448 89 347 5.0 7.0 0.00 0.00 0.00 39 936.9
20260506034349 89 334 5.0 7.0 0.00 0.00 0.00 39 937.0
20260506034248 89 335 5.0 7.0 0.00 0.00 0.00 38 937.0
20260506034149 89 341 5.0 7.0 0.00 0.00 0.00 38 937.0
20260506034049 89 305 5.0 7.0 0.00 0.00 0.00 38 936.9
20260506033949 89 323 5.0 7.0 0.00 0.00 0.00 38 936.9
20260506033848 90 323 5.0 8.0 0.00 0.00 0.00 38 936.9
20260506033748 90 336 5.0 8.0 0.00 0.00 0.00 38 936.9
20260506033649 90 312 5.0 8.0 0.00 0.00 0.00 38 936.9
20260506033548 90 317 5.0 8.0 0.00 0.00 0.00 38 936.9
20260506033449 90 320 5.0 8.0 0.00 0.00 0.00 38 936.8
20260506033348 90 354 5.0 8.0 0.00 0.00 0.00 38 936.8
20260506033249 90 348 4.0 8.0 0.00 0.00 0.00 38 936.8
20260506033148 90 336 4.0 8.0 0.00 0.00 0.00 37 936.8
20260506033048 90 338 4.0 8.0 0.00 0.00 0.00 37 936.8
20260506032949 90 329 4.0 8.0 0.00 0.00 0.00 37 936.8
20260506032848 91 331 4.0 8.0 0.00 0.00 0.00 37 936.7
20260506032749 91 338 4.0 7.0 0.00 0.00 0.00 37 936.7
20260506032649 91 319 4.0 9.0 0.00 0.00 0.00 36 936.7
20260506032548 91 327 4.0 9.0 0.00 0.00 0.00 36 936.7
20260506032442 91 312 4.0 9.0 0.00 0.00 0.00 36 936.7
20260506032343 91 311 4.0 9.0 0.00 0.00 0.00 36 936.7
20260506032242 91 349 4.0 9.0 0.00 0.00 0.00 36 936.7
20260506032143 91 333 4.0 9.0 0.00 0.00 0.00 35 936.7
20260506032043 91 14 5.0 9.0 0.00 0.00 0.00 35 936.7
20260506031942 92 350 5.0 9.0 0.00 0.00 0.00 35 936.7
20260506031837 92 34 5.0 9.0 0.00 0.00 0.00 35 936.7
20260506031737 92 39 5.0 9.0 0.00 0.00 0.00 36 936.7
20260506031637 92 26 5.0 9.0 0.00 0.00 0.00 35 936.7
20260506031537 92 20 5.0 9.0 0.00 0.00 0.00 35 936.6
20260506031437 92 16 5.0 8.0 0.00 0.00 0.00 35 936.6
20260506031337 92 57 6.0 10.0 0.00 0.00 0.00 35 936.6
20260506031237 92 5 6.0 10.0 0.00 0.00 0.00 34 936.6
20260506031137 92 32 6.0 10.0 0.00 0.00 0.00 34 936.6
20260506031037 92 35 6.0 10.0 0.00 0.00 0.00 34 936.6
20260506030937 92 51 6.0 10.0 0.00 0.00 0.00 34 936.6
20260506030837 92 12 6.0 10.0 0.00 0.00 0.00 34 936.5
20260506030738 92 39 6.0 10.0 0.00 0.00 0.00 33 936.5
20260506030638 92 42 7.0 10.0 0.00 0.00 0.00 33 936.5
20260506030537 92 63 7.0 10.0 0.00 0.00 0.00 33 936.5
20260506030437 92 33 7.0 10.0 0.00 0.00 0.00 32 936.5
20260506030337 92 33 7.0 10.0 0.00 0.00 0.00 32 936.5
20260506030238 92 42 7.0 10.0 0.00 0.00 0.00 31 936.4
20260506030137 92 27 7.0 10.0 0.00 0.00 0.00 31 936.4
20260506030037 92 340 6.0 10.0 0.00 0.00 0.00 31 936.4
20260506025937 93 11 6.0 10.0 0.00 0.00 0.00 32 936.4
20260506025837 93 20 6.0 10.0 0.00 0.00 0.00 32 936.4
20260506025738 93 35 6.0 10.0 0.00 0.00 0.00 31 936.4
20260506025637 93 37 6.0 11.0 0.00 0.00 0.00 31 936.4
20260506025537 93 26 6.0 11.0 0.00 0.00 0.00 31 936.2
20260506025437 93 58 6.0 11.0 0.00 0.00 0.00 31 936.3
20260506025337 93 18 6.0 11.0 0.00 0.00 0.00 30 936.3
20260506025238 93 35 7.0 11.0 0.00 0.00 0.00 29 936.3
20260506025137 93 62 7.0 11.0 0.00 0.00 0.00 29 936.3
20260506025037 93 16 7.0 11.0 0.00 0.00 0.00 29 936.3
20260506024937 93 15 7.0 11.0 0.00 0.00 0.00 29 936.3
20260506024838 93 42 7.0 11.0 0.00 0.00 0.00 29 936.3
20260506024737 93 32 7.0 11.0 0.00 0.00 0.00 29 936.2
20260506024638 93 27 6.0 11.0 0.00 0.00 0.00 29 936.1
20260506024537 93 26 6.0 12.0 0.00 0.00 0.00 28 936.1
20260506024433 93 37 7.0 15.0 0.00 0.00 0.00 28 936.1
20260506024333 93 21 7.0 15.0 0.00 0.00 0.00 28 936.1
20260506024234 93 42 7.0 15.0 0.00 0.00 0.00 28 936.1
20260506024133 93 12 7.0 15.0 0.00 0.00 0.00 28 936.0
20260506024033 93 11 7.0 15.0 0.00 0.00 0.00 28 936.0
20260506023933 93 25 7.0 15.0 0.00 0.00 0.00 28 936.1
20260506023833 93 347 8.0 15.0 0.00 0.00 0.00 28 936.0
20260506023732 93 70 8.0 15.0 0.00 0.00 0.00 28 936.0
20260506023633 93 30 8.0 15.0 0.00 0.00 0.00 28 936.0
20260506023533 94 53 8.0 15.0 0.00 0.00 0.00 28 935.9
20260506023433 94 64 8.0 15.0 0.00 0.00 0.00 28 935.9
20260506023333 94 63 7.0 15.0 0.00 0.00 0.00 28 935.9
20260506023233 94 39 7.0 15.0 0.00 0.00 0.00 28 935.8
20260506023133 94 52 6.0 15.0 0.00 0.00 0.00 28 935.9
20260506023033 94 39 6.0 15.0 0.00 0.00 0.00 28 935.9
20260506022933 94 64 6.0 15.0 0.00 0.00 0.00 28 935.9
20260506022833 94 106 6.0 13.0 0.00 0.00 0.00 28 935.9
20260506022733 94 63 6.0 16.0 0.00 0.00 0.00 27 935.9
20260506022632 94 97 7.0 16.0 0.00 0.00 0.00 27 935.9
20260506022532 94 66 7.0 16.0 0.00 0.00 0.00 27 935.8
20260506022430 94 75 7.0 16.0 0.00 0.00 0.00 27 935.8
20260506022329 94 71 7.0 16.0 0.00 0.00 0.00 27 935.8
20260506022230 94 25 7.0 16.0 0.00 0.00 0.00 27 935.9
20260506022130 94 38 7.0 16.0 0.00 0.00 0.00 26 935.9
20260506022029 94 69 7.0 16.0 0.00 0.00 0.00 26 935.8
20260506021929 94 78 7.0 16.0 0.00 0.00 0.00 27 935.8
20260506021826 94 42 7.0 16.0 0.00 0.00 0.00 27 935.8
20260506021726 94 35 7.0 13.0 0.00 0.00 0.00 27 935.8
20260506021627 94 83 6.0 11.0 0.00 0.00 0.00 27 935.8
20260506021521 94 51 7.0 11.0 0.00 0.00 0.00 27 935.8
20260506021421 94 34 7.0 12.0 0.00 0.00 0.00 27 935.9
20260506021321 94 35 7.0 12.0 0.00 0.00 0.00 27 935.8
20260506021215 94 35 7.0 12.0 0.00 0.00 0.00 27 935.8
20260506021113 94 28 7.0 12.0 0.00 0.00 0.00 27 935.9
20260506021011 95 25 7.0 12.0 0.00 0.00 0.00 26 935.8
20260506020912 95 28 7.0 12.0 0.00 0.00 0.00 26 935.8
20260506020808 95 38 8.0 12.0 0.00 0.00 0.00 26 935.8
20260506020707 95 39 8.0 12.0 0.00 0.00 0.00 26 935.8
20260506020608 95 5 8.0 12.0 0.00 0.00 0.00 26 935.8
20260506020509 95 37 8.0 12.0 0.00 0.00 0.00 26 935.8
20260506020409 95 14 7.0 11.0 0.00 0.00 0.00 26 935.8
20260506020309 95 36 7.0 11.0 0.00 0.00 0.00 26 935.8
20260506020209 95 38 7.0 11.0 0.00 0.00 0.00 26 935.8
20260506020109 95 45 7.0 10.0 0.00 0.00 0.00 26 935.8
20260506020009 95 15 7.0 10.0 0.00 0.00 0.00 26 935.8
20260506015909 95 26 7.0 10.0 0.00 0.00 0.00 26 935.8
20260506015808 95 11 7.0 10.0 0.00 0.00 0.00 26 935.8
20260506015709 95 40 7.0 10.0 0.00 0.00 0.00 26 935.8
20260506015609 95 26 7.0 10.0 0.00 0.00 0.00 26 935.8
20260506015509 95 30 7.0 9.0 0.00 0.00 0.00 26 935.8
20260506015409 95 40 6.0 9.0 0.00 0.00 0.00 26 935.8
20260506015309 95 27 7.0 11.0 0.00 0.00 0.00 26 935.8
20260506015209 95 43 6.0 11.0 0.00 0.00 0.00 26 935.7
20260506015109 95 16 6.0 11.0 0.00 0.00 0.00 26 935.7
20260506015009 95 18 6.0 11.0 0.00 0.00 0.00 26 935.7
20260506014909 95 31 7.0 11.0 0.00 0.00 0.00 25 935.7
20260506014809 95 21 7.0 11.0 0.00 0.00 0.00 25 935.7
20260506014709 95 27 7.0 11.0 0.00 0.00 0.00 25 935.7
20260506014610 95 30 7.0 11.0 0.00 0.00 0.00 25 935.7
20260506014509 96 10 7.0 11.0 0.00 0.00 0.00 25 935.7
20260506014410 96 23 7.0 11.0 0.00 0.00 0.00 25 935.6
20260506014310 96 40 6.0 11.0 0.00 0.00 0.00 25 935.6
20260506014209 96 352 7.0 11.0 0.00 0.00 0.00 25 935.6
20260506014110 96 25 7.0 11.0 0.00 0.00 0.00 25 935.6
20260506014010 96 32 7.0 11.0 0.00 0.00 0.00 25 935.6
20260506013910 96 20 7.0 11.0 0.00 0.00 0.00 25 935.6
20260506013805 96 39 7.0 11.0 0.00 0.00 0.00 25 935.6
20260506013704 96 41 7.0 11.0 0.00 0.00 0.00 25 935.6
20260506013604 96 40 7.0 11.0 0.00 0.00 0.00 25 935.6
20260506013503 96 25 7.0 11.0 0.00 0.00 0.00 25 935.6
20260506013404 96 15 7.0 11.0 0.00 0.00 0.00 25 935.5
20260506013303 96 30 7.0 11.0 0.00 0.00 0.00 25 935.5
20260506013204 96 16 7.0 11.0 0.00 0.00 0.00 25 935.5
20260506013104 96 15 7.0 11.0 0.00 0.00 0.00 25 935.5
20260506013000 96 27 7.0 11.0 0.00 0.00 0.00 25 935.5
20260506012858 96 29 6.0 11.0 0.00 0.00 0.00 25 935.5
20260506012757 97 19 6.0 11.0 0.00 0.00 0.00 25 935.4
20260506012658 97 22 6.0 11.0 0.00 0.00 0.00 25 935.4
20260506012558 97 24 6.0 11.0 0.00 0.00 0.00 25 935.4
20260506012454 97 25 6.0 10.0 0.00 0.00 0.00 24 935.3
20260506012355 98 31 6.0 10.0 0.00 0.00 0.00 24 935.3
20260506012255 98 30 6.0 10.0 0.00 0.00 0.00 24 935.3
20260506012154 98 43 7.0 10.0 0.00 0.00 0.00 23 935.2
20260506012054 98 29 7.0 10.0 0.00 0.00 0.00 23 935.2
20260506011955 98 28 6.0 10.0 0.00 0.00 0.00 24 935.2
20260506011855 98 14 6.0 10.0 0.00 0.00 0.00 23 935.2
20260506011755 98 34 6.0 10.0 0.00 0.00 0.00 23 935.1
20260506011654 98 21 6.0 10.0 0.00 0.00 0.00 23 935.1
20260506011555 98 57 6.0 10.0 0.00 0.00 0.00 23 935.1
20260506011455 98 49 6.0 9.0 0.00 0.00 0.00 23 935.1
20260506011355 99 28 6.0 10.0 0.00 0.00 0.00 22 935.1
20260506011255 99 25 6.0 10.0 0.00 0.00 0.00 22 935.0
20260506011154 99 35 6.0 10.0 0.00 0.00 0.00 22 935.0
20260506011055 99 11 6.0 11.0 0.00 0.00 0.00 22 935.0
20260506010955 99 26 6.0 11.0 0.00 0.00 0.00 22 935.0
20260506010855 99 26 7.0 11.0 0.00 0.00 0.00 22 935.0
20260506010754 99 52 7.0 11.0 0.00 0.00 0.00 21 935.0
20260506010655 99 56 8.0 12.0 0.00 0.00 0.00 21 934.9
20260506010555 99 48 7.0 12.0 0.00 0.00 0.00 21 934.9
20260506010454 99 46 7.0 12.0 0.00 0.00 0.00 21 934.9
20260506010355 99 53 7.0 12.0 0.00 0.00 0.00 21 934.9
20260506010255 99 40 7.0 12.0 0.00 0.00 0.00 21 934.9
20260506010155 98 52 6.0 12.0 0.00 0.00 0.00 21 934.9
20260506010054 98 32 6.0 12.0 0.00 0.00 0.00 21 934.9
20260506005955 98 46 6.0 12.0 0.00 0.00 0.00 22 934.8
20260506005855 98 39 5.0 12.0 0.00 0.00 0.00 22 934.8
20260506005755 98 46 5.0 12.0 0.00 0.00 0.00 22 934.8
20260506005655 99 45 4.0 9.0 0.00 0.00 0.00 22 934.8
20260506005555 99 20 4.0 9.0 0.00 0.00 0.00 22 934.8
20260506005455 99 20 4.0 9.0 0.00 0.00 0.00 22 934.8
20260506005356 99 17 4.0 7.0 0.00 0.00 0.00 22 934.8
20260506005255 99 348 4.0 9.0 0.00 0.00 0.00 22 934.8
20260506005155 99 339 4.0 9.0 0.00 0.00 0.00 23 934.8
20260506005055 99 3 4.0 9.0 0.00 0.00 0.00 22 934.8
20260506004955 99 321 4.0 10.0 0.00 0.00 0.00 22 934.8
20260506004855 99 349 4.0 10.0 0.00 0.00 0.00 22 934.8
20260506004755 99 346 4.0 10.0 0.00 0.00 0.00 22 934.7
20260506004655 99 293 4.0 10.0 0.00 0.00 0.00 22 934.7
20260506004556 99 333 4.0 10.0 0.00 0.00 0.00 22 934.7
20260506004455 100 339 4.0 10.0 0.00 0.00 0.00 21 934.7
20260506004355 100 353 4.0 10.0 0.00 0.00 0.00 21 934.6
20260506004255 100 345 4.0 10.0 0.00 0.00 0.00 21 934.6
20260506004154 100 53 4.0 10.0 0.00 0.00 0.00 21 934.6
20260506004054 100 35 5.0 10.0 0.00 0.00 0.00 21 934.5
20260506003952 100 48 5.0 10.0 0.00 0.00 0.00 21 934.5
20260506003853 100 53 5.0 10.0 0.00 0.00 0.00 20 934.5
20260506003753 100 48 5.0 10.0 0.00 0.00 0.00 21 934.5
20260506003653 100 74 5.0 10.0 0.00 0.00 0.00 21 934.5
20260506003552 100 28 6.0 10.0 0.00 0.00 0.00 21 934.5
20260506003453 100 96 6.0 11.0 0.00 0.00 0.00 21 934.5
20260506003352 100 61 6.0 12.0 0.00 0.00 0.00 21 934.5
20260506003249 100 41 7.0 12.0 0.00 0.00 0.00 21 934.5
20260506003148 100 54 7.0 12.0 0.00 0.00 0.00 21 934.6
20260506003049 100 55 7.0 12.0 0.00 0.00 0.00 21 934.5
20260506002948 100 20 7.0 12.0 0.00 0.00 0.00 21 934.6
20260506002849 100 43 7.0 12.0 0.00 0.00 0.00 21 934.6
20260506002748 100 40 7.0 12.0 0.00 0.00 0.00 21 934.6
20260506002649 100 50 6.0 12.0 0.00 0.00 0.00 21 934.6
20260506002548 100 7 6.0 12.0 0.00 0.00 0.00 21 934.5
20260506002449 100 36 6.0 12.0 0.00 0.00 0.00 21 934.5
20260506002348 101 16 6.0 12.0 0.00 0.00 0.00 20 934.5
20260506002248 101 31 5.0 12.0 0.00 0.00 0.00 19 934.5
20260506002149 101 41 5.0 12.0 0.00 0.00 0.00 18 934.4
20260506002049 101 41 5.0 12.0 0.00 0.00 0.00 18 934.4
20260506001948 101 44 5.0 12.0 0.00 0.00 0.00 18 934.4
20260506001849 101 265 5.0 8.0 0.00 0.00 0.00 18 934.4
20260506001748 101 274 5.0 8.0 0.00 0.00 0.00 18 934.4
20260506001649 101 1 5.0 8.0 0.00 0.00 0.00 18 934.4
20260506001549 101 4 5.0 8.0 0.00 0.00 0.00 18 934.4
20260506001448 101 331 5.0 8.0 0.00 0.00 0.00 18 934.4
20260506001349 101 351 4.0 8.0 0.00 0.00 0.00 19 934.4
20260506001249 101 356 4.0 8.0 0.00 0.00 0.00 18 934.4
20260506001149 101 348 4.0 8.0 0.00 0.00 0.00 18 934.4
20260506001049 101 312 4.0 8.0 0.00 0.00 0.00 18 934.4
20260506000949 101 14 4.0 7.0 0.00 0.00 0.00 18 934.4
20260506000849 101 20 4.0 7.0 0.00 0.00 0.00 18 934.4
20260506000749 101 354 4.0 7.0 0.00 0.00 0.00 18 934.3
20260506000648 101 345 4.0 7.0 0.00 0.00 0.00 18 934.3
20260506000549 102 350 4.0 7.0 0.00 0.00 0.00 18 934.3
20260506000449 102 346 4.0 7.0 0.00 0.00 0.00 17 934.3
20260506000350 102 351 3.0 7.0 0.00 0.00 0.00 17 934.3
20260506000249 102 359 3.0 6.0 0.00 0.00 0.00 16 934.3
20260506000149 102 7 3.0 6.0 0.00 0.00 0.00 16 934.2
20260506000049 102 345 2.0 6.0 0.00 0.00 0.00 16 934.2
20260505235949 103 353 2.0 6.0 0.00 0.00 0.00 16 934.2
20260505235849 103 0 2.0 6.0 0.00 0.00 0.00 15 934.2
20260505235749 103 320 2.0 5.0 0.00 0.00 0.00 14 934.2
20260505235650 103 226 2.0 4.0 0.00 0.00 0.00 13 934.2
20260505235549 103 226 2.0 5.0 0.00 0.00 0.00 10 934.1
20260505235449 103 229 2.0 6.0 0.00 0.00 0.00 9 934.1
20260505235349 103 230 2.0 8.0 0.00 0.00 0.00 9 934.1
20260505235249 103 226 2.0 8.0 0.00 0.00 0.00 9 934.1
20260505235150 103 225 2.0 8.0 0.00 0.00 0.00 9 934.1
20260505235049 103 225 2.0 8.0 0.00 0.00 0.00 9 934.1
20260505234949 103 226 3.0 8.0 0.00 0.00 0.00 10 934.1
20260505234850 103 226 3.0 8.0 0.00 0.00 0.00 10 934.1
20260505234749 103 226 3.0 8.0 0.00 0.00 0.00 9 934.1
20260505234649 103 223 4.0 8.0 0.00 0.00 0.00 10 934.0
20260505234548 103 187 4.0 8.0 0.00 0.00 0.00 10 934.0
20260505234448 103 62 4.0 8.0 0.00 0.00 0.00 10 934.0
20260505234348 103 82 4.0 8.0 0.00 0.00 0.00 10 934.1
20260505234248 103 86 4.0 7.0 0.00 0.00 0.00 10 934.1
20260505234147 103 81 4.0 10.0 0.00 0.00 0.00 10 934.0
20260505234048 103 103 4.0 10.0 0.00 0.00 0.00 10 934.0
20260505233948 103 94 4.0 10.0 0.00 0.00 0.00 10 934.1
20260505233848 103 104 4.0 10.0 0.00 0.00 0.00 10 934.1
20260505233748 103 94 4.0 10.0 0.00 0.00 0.00 10 934.1
20260505233648 103 86 4.0 10.0 0.00 0.00 0.00 11 934.1
20260505233548 103 129 4.0 10.0 0.00 0.00 0.00 11 934.1
20260505233448 103 136 4.0 10.0 0.00 0.00 0.00 11 934.1
20260505233348 103 110 4.0 10.0 0.00 0.00 0.00 11 934.1
20260505233249 103 130 4.0 10.0 0.00 0.00 0.00 11 934.1
20260505233148 103 119 4.0 10.0 0.00 0.00 0.00 10 934.1
20260505233048 103 114 4.0 10.0 0.00 0.00 0.00 10 934.1
20260505232947 103 119 4.0 10.0 0.00 0.00 0.00 11 934.1
20260505232848 103 54 3.0 10.0 0.00 0.00 0.00 11 934.1
20260505232748 103 166 3.0 10.0 0.00 0.00 0.00 11 934.1
20260505232648 103 179 3.0 10.0 0.00 0.00 0.00 11 934.1
20260505232548 103 173 3.0 10.0 0.00 0.00 0.00 11 934.1
20260505232448 103 158 3.0 10.0 0.00 0.00 0.00 11 934.1
20260505232349 103 195 2.0 10.0 0.00 0.00 0.00 11 934.1
20260505232248 103 199 2.0 10.0 0.00 0.00 0.00 11 934.1
20260505232148 103 200 2.0 5.0 0.00 0.00 0.00 11 934.1
20260505232047 103 210 2.0 5.0 0.00 0.00 0.00 11 934.1
20260505231948 103 220 2.0 5.0 0.00 0.00 0.00 11 934.1
20260505231849 103 216 2.0 5.0 0.00 0.00 0.00 11 934.1
20260505231748 103 220 2.0 5.0 0.00 0.00 0.00 11 934.1
20260505231648 103 215 2.0 5.0 0.00 0.00 0.00 11 934.1
20260505231548 103 44 2.0 5.0 0.00 0.00 0.00 11 934.1
20260505231448 103 219 2.0 5.0 0.00 0.00 0.00 11 934.2
20260505231348 103 210 2.0 5.0 0.00 0.00 0.00 11 934.2
20260505231248 103 205 2.0 5.0 0.00 0.00 0.00 12 934.2
20260505231148 103 199 2.0 5.0 0.00 0.00 0.00 12 934.2
20260505231049 103 205 2.0 5.0 0.00 0.00 0.00 11 934.2
20260505230948 103 212 2.0 5.0 0.00 0.00 0.00 11 934.2
20260505230844 103 227 2.0 5.0 0.00 0.00 0.00 11 934.2
20260505230745 103 241 1.0 6.0 0.00 0.00 0.00 11 934.2
20260505230646 103 223 1.0 8.0 0.00 0.00 0.00 11 934.2
20260505230545 103 140 2.0 8.0 0.00 0.00 0.00 11 934.2
20260505230446 103 48 2.0 8.0 0.00 0.00 0.00 11 934.2
20260505230345 103 217 2.0 10.0 0.00 0.00 0.00 11 934.3
20260505230246 103 211 2.0 10.0 0.00 0.00 0.00 11 934.3
20260505230142 103 41 3.0 10.0 0.00 0.00 0.00 11 934.3
20260505230041 103 196 3.0 10.0 0.00 0.00 0.00 11 934.3
20260505225941 103 231 3.0 10.0 0.00 0.00 0.00 11 934.3
20260505225841 103 222 3.0 10.0 0.00 0.00 0.00 11 934.3
20260505225741 103 47 4.0 10.0 0.00 0.00 0.00 11 934.3
20260505225642 103 211 4.0 10.0 0.00 0.00 0.00 11 934.3
20260505225541 103 163 4.0 10.0 0.00 0.00 0.00 11 934.3
20260505225442 103 160 3.0 10.0 0.00 0.00 0.00 11 934.3
20260505225341 103 178 3.0 10.0 0.00 0.00 0.00 11 934.3
20260505225243 103 154 3.0 7.0 0.00 0.00 0.00 11 934.3
20260505225141 103 143 3.0 7.0 0.00 0.00 0.00 11 934.3
20260505225040 103 218 3.0 10.0 0.00 0.00 0.00 12 934.3
20260505224938 103 219 3.0 10.0 0.00 0.00 0.00 12 934.3
20260505224839 103 202 3.0 10.0 0.00 0.00 0.00 12 934.4
20260505224735 103 216 3.0 10.0 0.00 0.00 0.00 11 934.3
20260505224636 103 235 3.0 10.0 0.00 0.00 0.00 12 934.3
20260505224536 103 202 3.0 10.0 0.00 0.00 0.00 12 934.3
20260505224437 103 228 3.0 10.0 0.00 0.00 0.00 12 934.3
20260505224336 103 228 3.0 10.0 0.00 0.00 0.00 12 934.3
20260505224237 103 214 3.0 10.0 0.00 0.00 0.00 12 934.3
20260505224136 103 226 3.0 10.0 0.00 0.00 0.00 12 934.3
20260505224035 103 225 3.0 10.0 0.00 0.00 0.00 12 934.4
20260505223936 103 225 2.0 6.0 0.00 0.00 0.00 12 934.4
20260505223836 103 196 2.0 6.0 0.00 0.00 0.00 12 934.4
20260505223736 103 209 2.0 6.0 0.00 0.00 0.00 12 934.4
20260505223636 103 187 2.0 5.0 0.00 0.00 0.00 12 934.4
20260505223536 103 214 2.0 5.0 0.00 0.00 0.00 12 934.4
20260505223437 103 226 2.0 4.0 0.00 0.00 0.00 13 934.4
20260505223337 103 228 2.0 4.0 0.00 0.00 0.00 13 934.4
20260505223238 103 18 2.0 4.0 0.00 0.00 0.00 13 934.5
20260505223138 103 228 2.0 3.0 0.00 0.00 0.00 12 934.5
20260505223037 103 21 2.0 3.0 0.00 0.00 0.00 13 934.5
20260505222937 103 33 2.0 3.0 0.00 0.00 0.00 13 934.5
20260505222837 103 32 2.0 4.0 0.00 0.00 0.00 12 934.5
20260505222732 103 28 2.0 4.0 0.00 0.00 0.00 12 934.5
20260505222631 103 228 2.0 9.0 0.00 0.00 0.00 12 934.5
20260505222531 103 40 3.0 13.0 0.00 0.00 0.00 12 934.6
20260505222431 103 39 3.0 13.0 0.00 0.00 0.00 12 934.6
20260505222331 103 50 3.0 13.0 0.00 0.00 0.00 13 934.6
20260505222230 103 41 3.0 13.0 0.00 0.00 0.00 13 934.6
20260505222132 103 19 4.0 15.0 0.00 0.00 0.00 13 934.6
20260505222031 103 32 4.0 20.0 0.00 0.00 0.00 13 934.6
20260505221932 103 43 5.0 20.0 0.00 0.00 0.00 13 934.6
20260505221831 103 42 5.0 20.0 0.00 0.00 0.00 13 934.6
20260505221732 103 226 6.0 20.0 0.00 0.00 0.00 13 934.6
20260505221631 103 237 6.0 20.0 0.00 0.00 0.00 13 934.6
20260505221531 103 224 6.0 20.0 0.00 0.00 0.00 13 934.6
20260505221432 103 223 6.0 20.0 0.00 0.00 0.00 14 934.6
20260505221332 103 189 6.0 20.0 0.00 0.00 0.00 13 934.6
20260505221231 103 246 6.0 20.0 0.00 0.00 0.00 13 934.6
20260505221132 103 191 6.0 20.0 0.00 0.00 0.00 13 934.6
20260505221028 103 204 5.0 20.0 0.00 0.00 0.00 13 934.6
20260505220927 103 229 5.0 20.0 0.00 0.00 0.00 13 934.7
20260505220828 103 221 4.0 20.0 0.00 0.00 0.00 13 934.7
20260505220727 103 219 4.0 20.0 0.00 0.00 0.00 14 934.7
20260505220629 103 217 4.0 20.0 0.00 0.00 0.00 14 934.8
20260505220528 103 224 3.0 8.0 0.00 0.00 0.00 15 934.7
20260505220428 103 225 3.0 8.0 0.00 0.00 0.00 15 934.8
20260505220328 103 214 3.0 8.0 0.00 0.00 0.00 15 934.8
20260505220229 103 217 3.0 8.0 0.00 0.00 0.00 15 934.8
20260505220129 103 38 3.0 8.0 0.00 0.00 0.00 14 934.8
20260505220029 103 224 3.0 10.0 0.00 0.00 0.00 15 934.8
20260505215924 103 219 3.0 10.0 0.00 0.00 0.00 15 934.8
20260505215824 103 228 3.0 10.0 0.00 0.00 0.00 15 934.8
20260505215724 103 222 3.0 10.0 0.00 0.00 0.00 14 934.8
20260505215625 102 219 3.0 10.0 0.00 0.00 0.00 14 934.8
20260505215526 102 222 3.0 10.0 0.00 0.00 0.00 14 934.8
20260505215426 102 221 3.0 10.0 0.00 0.00 0.00 13 934.8
20260505215326 102 220 4.0 10.0 0.00 0.00 0.00 13 934.8
20260505215226 102 228 4.0 10.0 0.00 0.00 0.00 13 934.9
20260505215123 102 223 4.0 11.0 0.00 0.00 0.00 13 934.9
20260505215022 102 221 4.0 11.0 0.00 0.00 0.00 14 934.9
20260505214923 102 216 4.0 11.0 0.00 0.00 0.00 13 934.9
20260505214822 102 218 4.0 11.0 0.00 0.00 0.00 13 935.0
20260505214723 102 214 4.0 18.0 0.00 0.00 0.00 14 935.0
20260505214619 102 218 4.0 18.0 0.00 0.00 0.00 14 935.0
20260505214518 102 206 3.0 18.0 0.00 0.00 0.00 14 935.1
20260505214419 102 223 3.0 18.0 0.00 0.00 0.00 14 935.1
20260505214319 102 204 3.0 18.0 0.00 0.00 0.00 14 935.1
20260505214219 102 222 3.0 18.0 0.00 0.00 0.00 14 935.1
20260505214119 102 222 3.0 18.0 0.00 0.00 0.00 14 935.2
20260505214020 102 227 3.0 18.0 0.00 0.00 0.00 14 935.2
20260505213920 102 199 2.0 18.0 0.00 0.00 0.00 14 935.2
20260505213820 102 225 2.0 18.0 0.00 0.00 0.00 15 935.2
20260505213720 102 218 2.0 6.0 0.00 0.00 0.00 14 935.2
20260505213620 102 203 2.0 6.0 0.00 0.00 0.00 14 935.2
20260505213520 102 28 2.0 4.0 0.00 0.00 0.00 14 935.2
20260505213417 103 204 2.0 4.0 0.00 0.00 0.00 14 935.2
20260505213317 103 217 2.0 3.0 0.00 0.00 0.00 15 935.3
20260505213218 102 226 2.0 3.0 0.00 0.00 0.00 16 935.3
20260505213117 102 242 2.0 4.0 0.00 0.00 0.00 16 935.3
20260505213017 102 224 2.0 4.0 0.00 0.00 0.00 16 935.3
20260505212918 102 206 2.0 6.0 0.00 0.00 0.00 16 935.3
20260505212817 103 237 2.0 6.0 0.00 0.00 0.00 15 935.4
20260505212717 102 218 2.0 6.0 0.00 0.00 0.00 15 935.4
20260505212617 102 226 2.0 6.0 0.00 0.00 0.00 15 935.4
20260505212517 102 42 2.0 6.0 0.00 0.00 0.00 15 935.5
20260505212417 102 226 3.0 6.0 0.00 0.00 0.00 15 935.5
20260505212317 102 226 3.0 6.0 0.00 0.00 0.00 15 935.5
20260505212218 102 226 3.0 6.0 0.00 0.00 0.00 16 935.5
20260505212117 102 226 3.0 6.0 0.00 0.00 0.00 16 935.5
20260505212017 102 200 3.0 6.0 0.00 0.00 0.00 17 935.6
20260505211917 102 205 3.0 6.0 0.00 0.00 0.00 17 935.6
20260505211817 102 204 3.0 6.0 0.00 0.00 0.00 17 935.6
20260505211718 102 216 3.0 6.0 0.00 0.00 0.00 17 935.6
20260505211617 102 214 3.0 6.0 0.00 0.00 0.00 17 935.6
20260505211518 102 228 3.0 5.0 0.00 0.00 0.00 17 935.7
20260505211417 102 233 3.0 5.0 0.00 0.00 0.00 17 935.7
20260505211318 102 226 3.0 5.0 0.00 0.00 0.00 17 935.7
20260505211217 101 226 3.0 5.0 0.00 0.00 0.00 17 935.7
20260505211117 101 234 2.0 5.0 0.00 0.00 0.00 17 935.7
20260505211018 101 222 2.0 5.0 0.00 0.00 0.00 18 935.7
20260505210917 101 230 2.0 5.0 0.00 0.00 0.00 18 935.8
20260505210818 101 193 2.0 5.0 0.00 0.00 0.00 18 935.8
20260505210717 101 226 2.0 4.0 0.00 0.00 0.00 18 935.8
20260505210618 101 226 2.0 4.0 0.00 0.00 0.00 17 935.8
20260505210518 101 224 2.0 4.0 0.00 0.00 0.00 18 935.8
20260505210417 101 226 2.0 4.0 0.00 0.00 0.00 18 935.8
20260505210318 101 34 2.0 4.0 0.00 0.00 0.00 18 935.9
20260505210217 101 225 2.0 4.0 0.00 0.00 0.00 18 935.9
20260505210118 101 222 2.0 4.0 0.00 0.00 0.00 18 935.9
20260505210018 101 238 2.0 4.0 0.00 0.00 0.00 18 935.9
20260505205918 101 226 2.0 4.0 0.00 0.00 0.00 18 935.9
20260505205818 101 226 2.0 5.0 0.00 0.00 0.00 18 935.9
20260505205717 101 226 3.0 5.0 0.00 0.00 0.00 18 935.9
20260505205618 101 225 3.0 5.0 0.00 0.00 0.00 18 936.0
20260505205518 101 225 3.0 5.0 0.00 0.00 0.00 18 936.0
20260505205418 101 217 3.0 5.0 0.00 0.00 0.00 18 936.0
20260505205317 101 226 3.0 5.0 0.00 0.00 0.00 18 936.0
20260505205214 101 245 3.0 5.0 0.00 0.00 0.00 18 936.1
20260505205112 101 228 3.0 5.0 0.00 0.00 0.00 19 936.1
20260505205011 101 229 2.0 5.0 0.00 0.00 0.00 19 936.1
20260505204912 101 226 2.0 5.0 0.00 0.00 0.00 18 936.1
20260505204812 101 227 2.0 5.0 0.00 0.00 0.00 19 936.2
20260505204712 101 226 2.0 5.0 0.00 0.00 0.00 19 936.2
20260505204613 101 227 2.0 5.0 0.00 0.00 0.00 19 936.2
20260505204512 101 229 2.0 5.0 0.00 0.00 0.00 19 936.2
20260505204411 101 226 2.0 5.0 0.00 0.00 0.00 19 936.3
20260505204312 101 226 2.0 5.0 0.00 0.00 0.00 19 936.3
20260505204212 101 226 2.0 5.0 0.00 0.00 0.00 19 936.3
20260505204112 101 236 2.0 5.0 0.00 0.00 0.00 19 936.3
20260505204012 100 226 2.0 6.0 0.00 0.00 0.00 19 936.4
20260505203912 100 228 3.0 6.0 0.00 0.00 0.00 19 936.4
20260505203812 100 235 3.0 6.0 0.00 0.00 0.00 19 936.4
20260505203712 100 220 3.0 6.0 0.00 0.00 0.00 19 936.4
20260505203613 100 209 3.0 7.0 0.00 0.00 0.00 20 936.4
20260505203512 101 222 3.0 7.0 0.00 0.00 0.00 20 936.4
20260505203412 101 279 2.0 7.0 0.00 0.00 0.00 20 936.5
20260505203312 101 340 2.0 7.0 0.00 0.00 0.00 20 936.5
20260505203212 101 225 2.0 7.0 0.00 0.00 0.00 20 936.5
20260505203112 100 35 2.0 7.0 0.00 0.00 0.00 20 936.5
20260505203012 100 12 2.0 7.0 0.00 0.00 0.00 20 936.6
20260505202913 100 28 2.0 23.0 0.00 0.00 0.00 19 936.6
20260505202812 100 226 3.0 23.0 0.00 0.00 0.00 19 936.6
20260505202712 100 49 3.0 23.0 0.00 0.00 0.00 19 936.6
20260505202612 100 34 3.0 23.0 0.00 0.00 0.00 19 936.6
20260505202512 100 31 3.0 23.0 0.00 0.00 0.00 19 936.6
20260505202412 99 0 3.0 23.0 0.00 0.00 0.00 20 936.7
20260505202307 99 226 4.0 23.0 0.00 0.00 0.00 20 936.7
20260505202208 99 0 4.0 23.0 0.00 0.00 0.00 20 936.7
20260505202106 99 294 4.0 23.0 0.00 0.00 0.00 22 936.8
20260505202006 99 91 4.0 23.0 0.00 0.00 0.00 22 936.8
20260505201907 99 236 4.0 10.0 0.00 0.00 0.00 22 936.8
20260505201807 99 232 4.0 10.0 0.00 0.00 0.00 22 936.8
20260505201706 98 246 3.0 10.0 0.00 0.00 0.00 22 936.8
20260505201607 98 226 3.0 8.0 0.00 0.00 0.00 22 936.8
20260505201506 98 306 3.0 8.0 0.00 0.00 0.00 22 936.8
20260505201407 98 330 3.0 21.0 0.00 0.00 0.00 22 936.8
20260505201306 98 4 3.0 21.0 0.00 0.00 0.00 22 936.9
20260505201207 98 249 3.0 21.0 0.00 0.00 0.00 22 936.9
20260505201107 98 315 2.0 21.0 0.00 0.00 0.00 22 936.9
20260505201006 98 230 2.0 21.0 0.00 0.00 0.00 22 937.0
20260505200906 98 32 3.0 21.0 0.00 0.00 0.00 22 937.0
20260505200806 98 290 3.0 21.0 0.00 0.00 0.00 21 937.0
20260505200707 98 8 3.0 21.0 0.00 0.00 0.00 21 937.1
20260505200606 98 230 2.0 21.0 0.00 0.00 0.00 21 937.1
20260505200507 98 226 2.0 21.0 0.00 0.00 0.00 23 937.1
20260505200406 98 203 2.0 5.0 0.00 0.00 0.00 23 937.2
20260505200307 98 204 2.0 5.0 0.00 0.00 0.00 23 937.2
20260505200206 98 195 3.0 5.0 0.00 0.00 0.00 23 937.2
20260505200107 98 168 3.0 5.0 0.00 0.00 0.00 23 937.2
20260505200007 98 150 2.0 5.0 0.00 0.00 0.00 23 937.2
20260505195907 98 166 2.0 5.0 0.00 0.00 0.00 23 937.2
20260505195807 98 153 2.0 5.0 0.00 0.00 0.00 24 937.2
20260505195706 98 0 2.0 5.0 0.00 0.00 0.00 24 937.2
20260505195607 98 124 2.0 5.0 0.00 0.00 0.00 24 937.2
20260505195507 98 320 2.0 5.0 0.00 0.00 0.00 24 937.2
20260505195407 98 343 2.0 5.0 0.00 0.00 0.00 24 937.3
20260505195307 97 20 2.0 5.0 0.00 0.00 0.00 24 937.3
20260505195206 97 191 2.0 5.0 0.00 0.00 0.00 24 937.3
20260505195107 97 193 2.0 4.0 0.00 0.00 0.00 24 937.3
20260505195002 97 229 2.0 4.0 0.00 0.00 0.00 25 937.4
20260505194901 97 266 2.0 4.0 0.00 0.00 0.00 24 937.4
20260505194800 97 273 2.0 4.0 0.00 0.00 0.00 24 937.5
20260505194701 97 264 2.0 4.0 0.00 0.00 0.00 24 937.5
20260505194601 97 320 2.0 4.0 0.00 0.00 0.00 24 937.5
20260505194501 97 270 2.0 5.0 0.00 0.00 0.00 24 937.5
20260505194401 96 348 2.0 5.0 0.00 0.00 0.00 25 937.5
20260505194301 96 233 2.0 5.0 0.00 0.00 0.00 25 937.6
20260505194201 96 0 2.0 5.0 0.00 0.00 0.00 25 937.6
20260505194100 96 241 2.0 5.0 0.00 0.00 0.00 26 937.6
20260505194001 96 259 3.0 5.0 0.00 0.00 0.00 26 937.6
20260505193901 96 233 3.0 8.0 0.00 0.00 0.00 26 937.6
20260505193801 96 144 3.0 8.0 0.00 0.00 0.00 26 937.6
20260505193701 96 316 4.0 8.0 0.00 0.00 0.00 26 937.6
20260505193601 96 280 3.0 8.0 0.00 0.00 0.00 27 937.7
20260505193501 96 352 3.0 8.0 0.00 0.00 0.00 27 937.7
20260505193401 96 257 3.0 8.0 0.00 0.00 0.00 27 937.7
20260505193301 96 17 3.0 8.0 0.00 0.00 0.00 27 937.7
20260505193201 96 15 2.0 8.0 0.00 0.00 0.00 27 937.7
20260505193102 96 23 2.0 8.0 0.00 0.00 0.00 26 937.7
20260505193001 96 36 2.0 8.0 0.00 0.00 0.00 27 937.7
20260505192901 96 272 2.0 6.0 0.00 0.00 0.00 26 937.7
20260505192801 96 54 2.0 5.0 0.00 0.00 0.00 27 937.7
20260505192701 96 211 2.0 5.0 0.00 0.00 0.00 27 937.7
20260505192600 96 100 2.0 5.0 0.00 0.00 0.00 26 937.8
20260505192501 95 197 2.0 5.0 0.00 0.00 0.00 27 937.8
20260505192401 95 231 2.0 5.0 0.00 0.00 0.00 27 937.8
20260505192301 95 269 2.0 5.0 0.00 0.00 0.00 27 937.8
20260505192200 95 6 2.0 5.0 0.00 0.00 0.00 27 937.8
20260505192101 95 27 2.0 6.0 0.00 0.00 0.00 27 937.8
20260505192001 95 227 2.0 6.0 0.00 0.00 0.00 27 937.9
20260505191901 95 198 3.0 6.0 0.00 0.00 0.00 27 937.9
20260505191802 95 326 3.0 6.0 0.00 0.00 0.00 27 937.9
20260505191701 95 345 3.0 6.0 0.00 0.00 0.00 28 937.9
20260505191601 94 355 3.0 6.0 0.00 0.00 0.00 28 937.9
20260505191502 94 348 3.0 6.0 0.00 0.00 0.00 28 938.0
20260505191401 94 220 2.0 6.0 0.00 0.00 0.00 28 938.0
20260505191302 94 23 2.0 6.0 0.00 0.00 0.00 28 938.0
20260505191201 94 5 3.0 6.0 0.00 0.00 0.00 28 938.1
20260505191102 94 1 3.0 6.0 0.00 0.00 0.00 28 938.1
20260505191001 94 342 3.0 6.0 0.00 0.00 0.00 28 938.1
20260505190902 94 326 3.0 6.0 0.00 0.00 0.00 28 938.1
20260505190801 94 348 3.0 6.0 0.00 0.00 0.00 28 938.1
20260505190701 93 320 2.0 6.0 0.00 0.00 0.00 29 938.1
20260505190602 93 131 2.0 6.0 0.00 0.00 0.00 29 938.1
20260505190501 93 26 2.0 6.0 0.00 0.00 0.00 29 938.2
20260505190401 93 187 3.0 6.0 0.00 0.00 0.00 29 938.2
20260505190301 93 200 2.0 6.0 0.00 0.00 0.00 30 938.2
20260505190202 93 169 2.0 6.0 0.00 0.00 0.00 30 938.2
20260505190001 93 176 2.0 5.0 0.00 0.00 0.00 30 938.3
20260505185901 93 169 2.0 5.0 0.00 0.00 0.00 30 938.3
20260505185802 93 178 2.0 5.0 0.00 0.00 0.00 29 938.3
20260505185702 93 183 2.0 6.0 0.00 0.00 0.00 29 938.3
20260505185601 93 149 2.0 6.0 0.00 0.00 0.00 30 938.3
20260505185502 93 228 2.0 6.0 0.00 0.00 0.00 30 938.4
20260505185401 93 166 3.0 6.0 0.00 0.00 0.00 30 938.4
20260505185304 93 0 3.0 6.0 0.00 0.00 0.00 30 938.4
20260505185202 93 198 3.0 6.0 0.00 0.00 0.00 30 938.4
20260505185102 93 184 3.0 8.0 0.00 0.00 0.00 30 938.4
20260505184958 93 172 4.0 8.0 0.00 0.00 0.00 30 938.4
20260505184856 93 132 4.0 8.0 0.00 0.00 0.00 31 938.5
20260505184756 93 81 4.0 8.0 0.00 0.00 0.00 31 938.5
20260505184656 93 91 4.0 8.0 0.00 0.00 0.00 31 938.4
20260505184556 93 159 4.0 8.0 0.00 0.00 0.00 32 938.5
20260505184451 93 77 3.0 8.0 0.00 0.00 0.00 31 938.5
20260505184351 93 68 3.0 8.0 0.00 0.00 0.00 31 938.5
20260505184252 93 64 3.0 8.0 0.00 0.00 0.00 31 938.5
20260505184151 93 24 3.0 8.0 0.00 0.00 0.00 31 938.5
20260505184051 93 36 2.0 6.0 0.00 0.00 0.00 32 938.5
20260505183952 93 355 2.0 7.0 0.00 0.00 0.00 31 938.6
20260505183851 93 345 2.0 7.0 0.00 0.00 0.00 31 938.6
20260505183752 92 331 2.0 7.0 0.00 0.00 0.00 31 938.6
20260505183651 92 19 2.0 7.0 0.00 0.00 0.00 32 938.6
20260505183552 92 7 2.0 7.0 0.00 0.00 0.00 32 938.6
20260505183452 92 146 2.0 7.0 0.00 0.00 0.00 31 938.6
20260505183352 92 0 2.0 7.0 0.00 0.00 0.00 33 938.7
20260505183250 91 151 3.0 7.0 0.00 0.00 0.00 34 938.7
20260505183150 91 230 3.0 7.0 0.00 0.00 0.00 33 938.7
20260505183050 91 43 3.0 7.0 0.00 0.00 0.00 33 938.7
20260505182950 91 114 3.0 7.0 0.00 0.00 0.00 34 938.7
20260505182850 91 25 3.0 6.0 0.00 0.00 0.00 34 938.7
20260505182749 91 39 3.0 6.0 0.00 0.00 0.00 34 938.7
20260505182646 91 119 3.0 6.0 0.00 0.00 0.00 35 938.7
20260505182545 91 171 4.0 6.0 0.00 0.00 0.00 34 938.7
20260505182446 91 151 3.0 6.0 0.00 0.00 0.00 33 938.7
20260505182345 91 149 3.0 6.0 0.00 0.00 0.00 33 938.7
20260505182246 91 4 3.0 6.0 0.00 0.00 0.00 34 938.8
20260505182146 91 5 3.0 6.0 0.00 0.00 0.00 34 938.8
20260505182045 91 113 3.0 6.0 0.00 0.00 0.00 34 938.8
20260505181946 91 24 3.0 6.0 0.00 0.00 0.00 34 938.8
20260505181845 91 0 3.0 7.0 0.00 0.00 0.00 33 938.9
20260505181746 91 13 3.0 7.0 0.00 0.00 0.00 33 938.9
20260505181646 91 45 3.0 7.0 0.00 0.00 0.00 35 938.9
20260505181545 91 78 3.0 7.0 0.00 0.00 0.00 36 938.9
20260505181446 91 0 3.0 7.0 0.00 0.00 0.00 35 938.9
20260505181346 91 197 3.0 7.0 0.00 0.00 0.00 35 938.9
20260505181246 91 0 4.0 8.0 0.00 0.00 0.00 35 939.0
20260505181146 90 119 4.0 8.0 0.00 0.00 0.00 36 939.0
20260505181046 90 101 4.0 8.0 0.00 0.00 0.00 36 939.0
20260505180946 90 18 4.0 8.0 0.00 0.00 0.00 36 939.0
20260505180846 90 98 4.0 8.0 0.00 0.00 0.00 36 939.0
20260505180746 90 52 4.0 8.0 0.00 0.00 0.00 36 939.0
20260505180647 90 25 4.0 8.0 0.00 0.00 0.00 36 939.0
20260505180546 90 25 4.0 8.0 0.00 0.00 0.00 37 939.0
20260505180447 90 62 4.0 8.0 0.00 0.00 0.00 37 939.0
20260505180346 90 55 4.0 8.0 0.00 0.00 0.00 38 939.0
20260505180247 90 43 4.0 8.0 0.00 0.00 0.00 37 939.0
20260505180147 90 50 3.0 8.0 0.00 0.00 0.00 37 939.0
20260505180046 90 359 3.0 8.0 0.00 0.00 0.00 37 939.0
20260505175946 90 44 4.0 8.0 0.00 0.00 0.00 37 939.0
20260505175846 89 33 4.0 8.0 0.00 0.00 0.00 37 939.1